Provisional Data: Susquehanna River near Binghamton, NY


Please select a monitoring station.
Please select start date.
Please select start date.

Toggle Unit: C/F Toggle Unit: C/F
Sample Time Temperature (C) Temperature (F) Specific Conductivity (mS/cm) pH   Turbidity (NTU+) DO (mg/L)
10/22/2021 12:00:00 AM 6.9665 3.6214
10/22/2021 12:15:00 AM 6.9659 3.6223
10/22/2021 12:30:00 AM 6.9663 3.5815
10/22/2021 12:45:00 AM 6.9666 3.5714
10/22/2021 1:00:00 AM 6.9663 3.5453
10/22/2021 1:15:00 AM 6.9662 3.5615
10/22/2021 1:30:00 AM 6.9661 3.5329
10/22/2021 1:45:00 AM 6.9666 3.6252
10/22/2021 2:00:00 AM 6.9665 3.5334
10/22/2021 2:15:00 AM 6.9664 3.5508
10/22/2021 2:30:00 AM 6.9665 3.4934
10/22/2021 2:45:00 AM 6.9636 3.5001
10/22/2021 3:00:00 AM 6.9679 3.4342
10/22/2021 3:15:00 AM 6.9703 3.4446
10/22/2021 3:30:00 AM 6.9712 3.4532
10/22/2021 3:45:00 AM 6.9707 3.5501
10/22/2021 4:00:00 AM 6.9712 3.5495
10/22/2021 4:15:00 AM 6.9711 3.54
10/22/2021 4:30:00 AM 6.9717 3.4795
10/22/2021 4:45:00 AM 6.9717 3.3803
10/22/2021 5:00:00 AM 6.9732 3.3976
10/22/2021 5:15:00 AM 6.9755 3.4481
10/22/2021 5:30:00 AM 6.973 3.4425
10/22/2021 5:45:00 AM 6.9762 3.5
10/22/2021 6:00:00 AM 6.9753 3.4457
10/22/2021 6:15:00 AM 6.9771 3.3499
10/22/2021 6:30:00 AM 6.98 3.3395
10/22/2021 6:45:00 AM 6.9806 3.3493
10/22/2021 7:00:00 AM 6.9804 3.3355
10/22/2021 7:15:00 AM 6.9803 3.3498
10/22/2021 7:30:00 AM 6.9793 3.3503
10/22/2021 7:45:00 AM 6.9781 3.3584
10/22/2021 8:00:00 AM 6.9761 3.5985
10/22/2021 8:15:00 AM 6.9756 3.5866
10/22/2021 8:30:00 AM 6.9759 3.4463
10/22/2021 8:45:00 AM 6.9776 3.5
10/22/2021 9:00:00 AM 6.976 3.4466
10/22/2021 9:15:00 AM 6.9763 3.5321
10/22/2021 9:30:00 AM 6.9777 3.4388
10/22/2021 9:45:00 AM 6.9757 3.5389
10/22/2021 10:00:00 AM 6.976 3.5379
10/22/2021 10:15:00 AM 6.9762 3.4784
10/22/2021 10:30:00 AM 6.9776 3.4488
10/22/2021 10:45:00 AM 6.9806 3.4155
10/22/2021 11:00:00 AM 6.9804 3.4348
10/22/2021 11:15:00 AM 6.9813 3.4349
10/22/2021 11:30:00 AM 6.9842 3.4399
10/22/2021 11:45:00 AM 6.986 3.4
10/22/2021 12:00:00 PM 6.9853 3.5418
10/22/2021 12:15:00 PM 6.9862 3.4182
10/22/2021 12:30:00 PM 6.9897 3.2934
10/22/2021 12:45:00 PM 6.9833 3.1582
10/22/2021 1:00:00 PM 6.9849 3.1342
10/22/2021 1:15:00 PM 6.9858 3.089
10/22/2021 1:30:00 PM 6.9898 3.0644
10/22/2021 1:45:00 PM 6.987 3.0427
10/22/2021 2:00:00 PM 6.9895 3.0446
10/22/2021 2:15:00 PM 6.9904 3.0132
10/22/2021 2:30:00 PM 6.9908 3.0146
10/22/2021 2:45:00 PM 6.9941 2.9806
10/22/2021 3:00:00 PM 6.9957 2.9263
10/22/2021 3:15:00 PM 6.9987 2.9423
10/22/2021 3:30:00 PM 6.9988 3.029
10/22/2021 3:45:00 PM 7.0029 3.1095
10/22/2021 4:00:00 PM 7.0064 3.1916
10/22/2021 4:15:00 PM 7.0093 3.0323
10/22/2021 4:30:00 PM 7.014 3.0963
10/22/2021 4:45:00 PM 7.0167 3.0338
10/22/2021 5:00:00 PM 7.0194 2.9545
10/22/2021 5:15:00 PM 7.024 2.9437
10/22/2021 5:30:00 PM 7.024 2.9378
10/22/2021 5:45:00 PM 7.0238 3
10/22/2021 6:00:00 PM 7.0278 2.9212
10/22/2021 6:15:00 PM 7.0288 2.9322
10/22/2021 6:30:00 PM 7.0291 3.0453
10/22/2021 6:45:00 PM 7.0252 3.2466
10/22/2021 7:00:00 PM 7.0251 3.1539
10/22/2021 7:15:00 PM 7.0286 3.2502
10/22/2021 7:30:00 PM 7.0281 3.1389
10/22/2021 7:45:00 PM 7.0286 3.1388
10/22/2021 8:00:00 PM 7.0289 3.1796
10/22/2021 8:15:00 PM 7.0287 3.2241
10/22/2021 8:30:00 PM 7.0288 3.2468
10/22/2021 8:45:00 PM 7.0252 3.3
10/22/2021 9:00:00 PM 7.0284 3.2496
10/22/2021 9:15:00 PM 7.0284 3.2486
10/22/2021 9:30:00 PM 7.029 3.3556
10/22/2021 9:45:00 PM 7.029 3.398
10/22/2021 10:00:00 PM 7.0286 3.3265
10/22/2021 10:15:00 PM 7.0292 3.2314
10/22/2021 10:30:00 PM 7.0289 3.2216
10/22/2021 10:45:00 PM 7.0293 3.2272
10/22/2021 11:00:00 PM 7.0288 3.2503
10/22/2021 11:15:00 PM 7.0288 3.2567
10/22/2021 11:30:00 PM 7.0285 3.2403
10/22/2021 11:45:00 PM 7.0308 3.3
10/23/2021 12:00:00 AM 7.0299 3.2612
10/23/2021 12:15:00 AM 7.0291 3.2527
10/23/2021 12:30:00 AM 7.032 3.33
10/23/2021 12:45:00 AM 7.0338 3.3399
10/23/2021 1:00:00 AM 7.0337 3.2989
10/23/2021 1:15:00 AM 7.0367 3.2474
10/23/2021 1:30:00 AM 7.0368 3.2307
10/23/2021 1:45:00 AM 7.0382 3.2367
10/23/2021 2:00:00 AM 7.0384 3.2508
10/23/2021 2:15:00 AM 7.0397 3.2568
10/23/2021 2:30:00 AM 7.0426 3.2218
10/23/2021 2:45:00 AM 7.0434 3.2998
10/23/2021 3:00:00 AM 7.0433 3.2325
10/23/2021 3:15:00 AM 7.043 3.2857
10/23/2021 3:30:00 AM 7.0436 3.2479
10/23/2021 3:45:00 AM 7.0426 3.2811
10/23/2021 4:00:00 AM 7.043 3.223
10/23/2021 4:15:00 AM 7.0452 3.1331
10/23/2021 4:30:00 AM 7.0482 3.2226
10/23/2021 4:45:00 AM 7.0485 3.2194
10/23/2021 5:00:00 AM 7.0513 3.1481
10/23/2021 5:15:00 AM 7.0501 3.2516
10/23/2021 5:30:00 AM 7.0518 3.1892
10/23/2021 5:45:00 AM 7.0546 3.2
10/23/2021 6:00:00 AM 7.0536 3.2399
10/23/2021 6:15:00 AM 7.0532 3.252
10/23/2021 6:30:00 AM 7.0554 3.1813
10/23/2021 6:45:00 AM 7.0578 3.2437
10/23/2021 7:00:00 AM 7.0578 3.2514
10/23/2021 7:15:00 AM 7.0583 3.3545
10/23/2021 7:30:00 AM 7.0582 3.4097
10/23/2021 7:45:00 AM 7.0578 3.2803
10/23/2021 8:00:00 AM 7.0608 3.2363
10/23/2021 8:15:00 AM 7.0585 3.251
10/23/2021 8:30:00 AM 7.0581 3.2628
10/23/2021 8:45:00 AM 7.063 3.3
10/23/2021 9:00:00 AM 7.0599 3.1345
10/23/2021 9:15:00 AM 7.062 3.1417
10/23/2021 9:30:00 AM 7.0614 3.1428
10/23/2021 9:45:00 AM 7.0596 3.1323
10/23/2021 10:00:00 AM 7.0576 3.1564
10/23/2021 10:15:00 AM 7.0578 3.1212
10/23/2021 10:30:00 AM 7.058 3.0981
10/23/2021 10:45:00 AM 7.0581 3.0927
10/23/2021 11:00:00 AM 7.0575 3.0317
10/23/2021 11:15:00 AM 7.058 3.0547
10/23/2021 11:30:00 AM 7.058 14.4127
10/23/2021 11:45:00 AM 7.0532 4.9999
10/23/2021 12:00:00 PM 7.0645 3.0728
10/23/2021 12:15:00 PM 7.0668 3.0113
10/23/2021 12:30:00 PM 7.0672 3.0084
10/23/2021 12:45:00 PM 7.0676 3.0308
10/23/2021 1:00:00 PM 7.0693 3.0077
10/23/2021 1:15:00 PM 7.0724 2.9384
10/23/2021 1:30:00 PM 7.0735 2.9241
10/23/2021 1:45:00 PM 7.0774 2.9394
10/23/2021 2:00:00 PM 7.0801 2.9492
10/23/2021 2:15:00 PM 7.0821 2.9273
10/23/2021 2:30:00 PM 7.0834 2.939
10/23/2021 2:45:00 PM 7.0868 2.8693
10/23/2021 3:00:00 PM 7.0909 2.8324
10/23/2021 3:15:00 PM 7.0932 2.827
10/23/2021 3:30:00 PM 7.0967 2.8463
10/23/2021 3:45:00 PM 7.1009 2.8706
10/23/2021 4:00:00 PM 7.1034 2.8427
10/23/2021 4:15:00 PM 7.1058 2.8248
10/23/2021 4:30:00 PM 7.1109 2.8399
10/23/2021 4:45:00 PM 7.1132 2.8304
10/23/2021 5:00:00 PM 7.1157 2.8346
10/23/2021 5:15:00 PM 7.1188 2.9139
10/23/2021 5:30:00 PM 7.1229 2.8656
10/23/2021 5:45:00 PM 7.1274 2.9
10/23/2021 6:00:00 PM 7.125 2.7334
10/23/2021 6:15:00 PM 7.1255 2.7365
10/23/2021 6:30:00 PM 7.1253 2.7309
10/23/2021 6:45:00 PM 7.1253 2.7611
10/23/2021 7:00:00 PM 7.1244 3.0003
10/23/2021 7:15:00 PM 7.1116 3.1923
10/23/2021 7:30:00 PM 7.1103 3.0553
10/23/2021 7:45:00 PM 7.1105 3.0315
10/23/2021 8:00:00 PM 7.1086 3.0331
10/23/2021 8:15:00 PM 7.1069 3.0347
10/23/2021 8:30:00 PM 7.1065 3.0348
10/23/2021 8:45:00 PM 7.1078 3.1
10/23/2021 9:00:00 PM 7.1032 3.1041
10/23/2021 9:15:00 PM 7.1017 3.1113
10/23/2021 9:30:00 PM 7.101 3.1311
10/23/2021 9:45:00 PM 7.099 3.1599
10/23/2021 10:00:00 PM 7.0975 3.1217
10/23/2021 10:15:00 PM 7.0971 3.1049
10/23/2021 10:30:00 PM 7.0963 3.0738
10/23/2021 10:45:00 PM 7.0963 3.1216
10/23/2021 11:00:00 PM 7.0968 3.0591
10/23/2021 11:15:00 PM 7.0963 3.0896
10/23/2021 11:30:00 PM 7.097 3.0925
10/23/2021 11:45:00 PM 7.0994 3.1
10/24/2021 12:00:00 AM 7.0967 3.0922
10/24/2021 12:15:00 AM 7.0969 3.0978
10/24/2021 12:30:00 AM 7.0968 3.1557
10/24/2021 12:45:00 AM 7.097 3.1296
10/24/2021 1:00:00 AM 7.0965 3.1318
10/24/2021 1:15:00 AM 7.0968 3.14
10/24/2021 1:30:00 AM 7.1007 3.1494
10/24/2021 1:45:00 AM 7.1009 3.1594
10/24/2021 2:00:00 AM 7.1014 3.1356
10/24/2021 2:15:00 AM 7.1008 3.1365
10/24/2021 2:30:00 AM 7.1019 3.1475
10/24/2021 2:45:00 AM 7.0994 3.1999
10/24/2021 3:00:00 AM 7.1014 3.1354
10/24/2021 3:15:00 AM 7.1049 3.1416
10/24/2021 3:30:00 AM 7.1058 3.1402
10/24/2021 3:45:00 AM 7.1057 3.1481
10/24/2021 4:00:00 AM 7.106 3.1408
10/24/2021 4:15:00 AM 7.106 3.1383
10/24/2021 4:30:00 AM 7.1019 3.1938
10/24/2021 4:45:00 AM 7.0994 3.2317
10/24/2021 5:00:00 AM 7.1027 3.1656
10/24/2021 5:15:00 AM 7.1057 3.1501
10/24/2021 5:30:00 AM 7.106 3.1227
10/24/2021 5:45:00 AM 7.1078 3.1
10/24/2021 6:00:00 AM 7.1094 3.0268
10/24/2021 6:15:00 AM 7.1106 3.0502
10/24/2021 6:30:00 AM 7.1112 3.0515
10/24/2021 6:45:00 AM 7.1109 3.0297
10/24/2021 7:00:00 AM 7.1108 3.0363
10/24/2021 7:15:00 AM 7.1114 3.0328
10/24/2021 7:30:00 AM 7.1118 3.0365
10/24/2021 7:45:00 AM 7.115 3.051
10/24/2021 8:00:00 AM 7.1149 3.064
10/24/2021 8:15:00 AM 7.1136 3.0685
10/24/2021 8:30:00 AM 7.1126 3.0496
10/24/2021 8:45:00 AM 7.1106 3.1
10/24/2021 9:00:00 AM 7.1114 2.9777
10/24/2021 9:15:00 AM 7.1146 2.9454
10/24/2021 9:30:00 AM 7.1157 2.9293
10/24/2021 9:45:00 AM 7.1159 2.9442
10/24/2021 10:00:00 AM 7.116 2.9062
10/24/2021 10:15:00 AM 7.1128 2.8656
10/24/2021 10:30:00 AM 7.1117 2.8356
10/24/2021 10:45:00 AM 7.1123 2.8325
10/24/2021 11:00:00 AM 7.111 2.8558
10/24/2021 11:15:00 AM 7.111 2.8484
10/24/2021 11:30:00 AM 7.1112 2.8616
10/24/2021 11:45:00 AM 7.1134 2.8
10/24/2021 12:00:00 PM 7.1145 2.9551
10/24/2021 12:15:00 PM 7.1154 2.9367
10/24/2021 12:30:00 PM 7.1159 2.8569
10/24/2021 12:45:00 PM 7.116 2.8698
10/24/2021 1:00:00 PM 7.1186 3.0843
10/24/2021 1:15:00 PM 7.121 3.0944
10/24/2021 1:30:00 PM 7.1242 2.8715
10/24/2021 1:45:00 PM 7.1253 2.7406
10/24/2021 2:00:00 PM 7.1283 2.7284
10/24/2021 2:15:00 PM 7.131 2.6704
10/24/2021 2:30:00 PM 7.1353 2.6205
10/24/2021 2:45:00 PM 7.1396 2.6303
10/24/2021 3:00:00 PM 7.1453 2.6435
10/24/2021 3:15:00 PM 7.1501 2.6001
10/24/2021 3:30:00 PM 7.154 2.5749
10/24/2021 3:45:00 PM 7.1583 2.5485
10/24/2021 4:00:00 PM 7.164 2.5692
10/24/2021 4:15:00 PM 7.1663 2.5577
10/24/2021 4:30:00 PM 7.1697 2.5331
10/24/2021 4:45:00 PM 7.1742 2.5281
10/24/2021 5:00:00 PM 7.1744 2.5411
10/24/2021 5:15:00 PM 7.1783 2.5885
10/24/2021 5:30:00 PM 7.1797 2.591
10/24/2021 5:45:00 PM 7.1834 2.6
10/24/2021 6:00:00 PM 7.1829 2.5381
10/24/2021 6:15:00 PM 7.184 2.5493
10/24/2021 6:30:00 PM 7.1837 2.6478
10/24/2021 6:45:00 PM 7.1815 2.849
10/24/2021 7:00:00 PM 7.1709 2.8753
10/24/2021 7:15:00 PM 7.1699 2.749
10/24/2021 7:30:00 PM 7.1687 2.7457
10/24/2021 7:45:00 PM 7.1649 2.7589
10/24/2021 8:00:00 PM 7.1629 2.7451
10/24/2021 8:15:00 PM 7.1596 2.7482
10/24/2021 8:30:00 PM 7.1556 2.7456
10/24/2021 8:45:00 PM 7.1568 2.7
10/24/2021 9:00:00 PM 7.1499 2.7485
10/24/2021 9:15:00 PM 7.1487 2.7486
10/24/2021 9:30:00 PM 7.1446 2.7761
10/24/2021 9:45:00 PM 7.1398 2.7374
10/24/2021 10:00:00 PM 7.1394 2.7299
10/24/2021 10:15:00 PM 7.1375 2.7418
10/24/2021 10:30:00 PM 7.1353 2.7622
10/24/2021 10:45:00 PM 7.1352 2.7374
10/24/2021 11:00:00 PM 7.1348 2.7376
10/24/2021 11:15:00 PM 7.1353 2.7408
10/24/2021 11:30:00 PM 7.1354 2.7609
10/24/2021 11:45:00 PM 7.133 2.8
10/25/2021 12:00:00 AM 7.1315 2.8148
10/25/2021 12:15:00 AM 7.1305 2.8138
10/25/2021 12:30:00 AM 7.1309 2.8478
10/25/2021 12:45:00 AM 7.1304 2.8183
10/25/2021 1:00:00 AM 7.1304 2.8465
10/25/2021 1:15:00 AM 7.1303 2.8411
10/25/2021 1:30:00 AM 7.1287 2.8181
10/25/2021 1:45:00 AM 7.129 2.8192
10/25/2021 2:00:00 AM 7.1295 2.8466
10/25/2021 2:15:00 AM 7.1294 2.8518
10/25/2021 2:30:00 AM 7.1329 2.833
10/25/2021 2:45:00 AM 7.1358 2.7999
10/25/2021 3:00:00 AM 7.1381 2.8262
10/25/2021 3:15:00 AM 7.1409 2.8445
10/25/2021 3:30:00 AM 7.1443 2.8421
10/25/2021 3:45:00 AM 7.147 2.9629
10/25/2021 4:00:00 AM 7.1504 3.0758
10/25/2021 4:15:00 AM 7.1531 3.1513
10/25/2021 4:30:00 AM 7.1504 3.1466
10/25/2021 4:45:00 AM 7.1524 3.1856
10/25/2021 5:00:00 AM 7.1515 3.164
10/25/2021 5:15:00 AM 7.1511 3.1338
10/25/2021 5:30:00 AM 7.1501 3.1377
10/25/2021 5:45:00 AM 7.147 3.2
10/25/2021 6:00:00 AM 7.1497 3.1345
10/25/2021 6:15:00 AM 7.1501 3.1439
10/25/2021 6:30:00 AM 7.1473 3.1487
10/25/2021 6:45:00 AM 7.1457 3.1537
10/25/2021 7:00:00 AM 7.1449 3.0857
10/25/2021 7:15:00 AM 7.1444 3.0477
10/25/2021 7:30:00 AM 7.1416 3.0335
10/25/2021 7:45:00 AM 7.1398 3.0154
10/25/2021 8:00:00 AM 7.1387 2.9893
10/25/2021 8:15:00 AM 7.1355 2.9897
10/25/2021 8:30:00 AM 7.1349 2.96
10/25/2021 8:45:00 AM 7.1386 3
10/25/2021 9:00:00 AM 7.1307 2.9188
10/25/2021 9:15:00 AM 7.1271 2.8416
10/25/2021 9:30:00 AM 7.1252 2.8336
10/25/2021 9:45:00 AM 7.1251 2.8413
10/25/2021 10:00:00 AM 7.1215 2.7986
10/25/2021 10:15:00 AM 7.1206 2.7043
10/25/2021 10:30:00 AM 7.1207 2.7423
10/25/2021 10:45:00 AM 7.1205 2.7599
10/25/2021 11:00:00 AM 7.1165 2.7231
10/25/2021 11:15:00 AM 7.1158 2.6587
10/25/2021 11:30:00 AM 7.1158 2.6476
10/25/2021 11:45:00 AM 7.1134 2.8
10/25/2021 12:00:00 PM 7.1136 2.6297
10/25/2021 12:15:00 PM 7.1126 2.6006
10/25/2021 12:30:00 PM 7.1111 2.6457
10/25/2021 12:45:00 PM 7.1115 2.6497
10/25/2021 1:00:00 PM 7.1114 2.6523
10/25/2021 1:15:00 PM 7.1111 2.6374
10/25/2021 1:30:00 PM 7.1114 2.5595
10/25/2021 1:45:00 PM 7.1114 2.5684
10/25/2021 2:00:00 PM 7.1127 2.526
10/25/2021 2:15:00 PM 7.1155 2.5369
10/25/2021 2:30:00 PM 7.116 2.5438
10/25/2021 2:45:00 PM 7.1183 2.5533
10/25/2021 3:00:00 PM 7.121 2.5614
10/25/2021 3:15:00 PM 7.1245 2.5542
10/25/2021 3:30:00 PM 7.129 2.5386
10/25/2021 3:45:00 PM 7.1338 2.4589
10/25/2021 4:00:00 PM 7.1406 2.4059
10/25/2021 4:15:00 PM 7.1456 2.4401
10/25/2021 4:30:00 PM 7.151 2.448
10/25/2021 4:45:00 PM 7.1549 2.4633
10/25/2021 5:00:00 PM 7.1576 2.4572
10/25/2021 5:15:00 PM 7.1604 2.4335
10/25/2021 5:30:00 PM 7.1647 2.4887
10/25/2021 5:45:00 PM 7.1666 2.5
10/25/2021 6:00:00 PM 7.1689 2.4525
10/25/2021 6:15:00 PM 7.1694 2.4355
10/25/2021 6:30:00 PM 7.171 2.5255
10/25/2021 6:45:00 PM 7.1676 2.6579
10/25/2021 7:00:00 PM 7.1669 2.545
10/25/2021 7:15:00 PM 7.1694 2.5007
10/25/2021 7:30:00 PM 7.1688 2.435
10/25/2021 7:45:00 PM 7.1648 2.4372
10/25/2021 8:00:00 PM 7.1644 2.427
10/25/2021 8:15:00 PM 7.1601 2.4443
10/25/2021 8:30:00 PM 7.1566 2.4306
10/25/2021 8:45:00 PM 7.1526 2.5
10/25/2021 9:00:00 PM 7.1492 2.4222
10/25/2021 9:15:00 PM 7.1446 2.4755
10/25/2021 9:30:00 PM 7.1401 2.479
10/25/2021 9:45:00 PM 7.1377 2.444
10/25/2021 10:00:00 PM 7.1332 2.4304
10/25/2021 10:15:00 PM 7.1303 2.4526
10/25/2021 10:30:00 PM 7.1264 2.4385
10/25/2021 10:45:00 PM 7.1223 2.4563
10/25/2021 11:00:00 PM 7.1187 2.4499
10/25/2021 11:15:00 PM 7.1155 2.4468
10/25/2021 11:30:00 PM 7.1116 2.4449
10/25/2021 11:45:00 PM 7.1106 2.4
10/26/2021 12:00:00 AM 7.1069 2.4394
10/26/2021 12:15:00 AM 7.1064 2.4448
10/26/2021 12:30:00 AM 7.1035 2.463
10/26/2021 12:45:00 AM 7.1014 2.4421
10/26/2021 1:00:00 AM 7.1016 2.4556
10/26/2021 1:15:00 AM 7.1012 2.4399
10/26/2021 1:30:00 AM 7.0978 2.405
10/26/2021 1:45:00 AM 7.0976 2.4045
10/26/2021 2:00:00 AM 7.0969 2.4066
10/26/2021 2:15:00 AM 7.0969 2.3903
10/26/2021 2:30:00 AM 7.0968 2.4417
10/26/2021 2:45:00 AM 7.098 2.4998
10/26/2021 3:00:00 AM 7.0929 2.4157
10/26/2021 3:15:00 AM 7.0921 2.3767
10/26/2021 3:30:00 AM 7.0923 2.4469
10/26/2021 3:45:00 AM 7.0916 2.3996
10/26/2021 4:00:00 AM 7.0924 2.386
10/26/2021 4:15:00 AM 7.0919 2.4001
10/26/2021 4:30:00 AM 7.0918 2.386
10/26/2021 4:45:00 AM 7.0914 2.3632
10/26/2021 5:00:00 AM 7.0913 2.4132
10/26/2021 5:15:00 AM 7.0915 2.4397
10/26/2021 5:30:00 AM 7.0873 2.442
10/26/2021 5:45:00 AM 7.084 2.4001
10/26/2021 6:00:00 AM 7.0827 2.3899
10/26/2021 6:15:00 AM 7.0823 2.4111
10/26/2021 6:30:00 AM 7.078 2.4065
10/26/2021 6:45:00 AM 7.0769 2.3736
10/26/2021 7:00:00 AM 7.0729 2.5129
10/26/2021 7:15:00 AM 7.0726 2.5445
10/26/2021 7:30:00 AM 7.0693 2.5629
10/26/2021 7:45:00 AM 7.0683 2.5981
10/26/2021 8:00:00 AM 7.0667 2.5465
10/26/2021 8:15:00 AM 7.0642 2.6369
10/26/2021 8:30:00 AM 7.0654 2.7913
10/26/2021 8:45:00 AM 7.0616 2.9
10/26/2021 9:00:00 AM 7.063 3.0026
10/26/2021 9:15:00 AM 7.062 3.1383
10/26/2021 9:30:00 AM 7.0587 3.143
10/26/2021 9:45:00 AM 7.0578 3.139
10/26/2021 10:00:00 AM 7.0575 3.0617
10/26/2021 10:15:00 AM 7.058 2.9797
10/26/2021 10:30:00 AM 7.0583 2.9356
10/26/2021 10:45:00 AM 7.056 2.8658
10/26/2021 11:00:00 AM 7.0571 2.8692
10/26/2021 11:15:00 AM 7.0565 2.9265
10/26/2021 11:30:00 AM 7.0533 2.9523
10/26/2021 11:45:00 AM 7.0546 3
10/26/2021 12:00:00 PM 7.0539 4.1374
10/26/2021 12:15:00 PM 7.0574 5.9432
10/26/2021 12:30:00 PM 7.0589 10.6942
10/26/2021 12:45:00 PM 7.0569 15.072
10/26/2021 1:00:00 PM 7.0494 354.9143
10/26/2021 1:15:00 PM 7.0369 335.8581
10/26/2021 1:30:00 PM 7.0343 335.846
10/26/2021 1:45:00 PM 7.0314 335.8531
10/26/2021 2:00:00 PM 7.0275 335.8274
10/26/2021 2:15:00 PM 7.02 335.8342
10/26/2021 2:30:00 PM 7.0126 335.8494
10/26/2021 2:45:00 PM 7.0094 335.8439
10/26/2021 3:00:00 PM 7.0053 335.8379
10/26/2021 3:15:00 PM 7.0013 335.8442
10/26/2021 3:30:00 PM 7.0002 335.8419
10/26/2021 3:45:00 PM 6.9964 335.8368
10/26/2021 4:00:00 PM 6.9933 335.8397
10/26/2021 4:15:00 PM 6.9889 335.8439
10/26/2021 4:30:00 PM 6.984 335.8502
10/26/2021 4:45:00 PM 6.9789 335.842
10/26/2021 5:00:00 PM 6.9721 335.8412
10/26/2021 5:15:00 PM 6.9638 335.8418
10/26/2021 5:30:00 PM 6.954 335.8449
10/26/2021 5:45:00 PM 6.951 335.9
10/26/2021 6:00:00 PM 6.9295 335.8528
10/26/2021 6:15:00 PM 6.9166 335.8471
10/26/2021 6:30:00 PM 6.9011 335.8523
10/26/2021 6:45:00 PM 6.8821 335.8451
10/26/2021 7:00:00 PM 6.8622 335.85
10/26/2021 7:15:00 PM 6.8391 438.0288
10/26/2021 7:30:00 PM 6.8152 992.5441
10/26/2021 7:45:00 PM 6.7917 926.7729
10/26/2021 8:00:00 PM 6.7692 849.0766
10/26/2021 8:15:00 PM 6.7464 780.1539
10/26/2021 8:30:00 PM 6.7277 760.5782
10/26/2021 8:45:00 PM 6.7172 741.7993
10/26/2021 9:00:00 PM 6.6939 686.0083
10/26/2021 9:15:00 PM 6.6789 640.6928
10/26/2021 9:30:00 PM 6.6675 617.9671
10/26/2021 9:45:00 PM 6.6567 580.1038
10/26/2021 10:00:00 PM 6.6451 550.2843
10/26/2021 10:15:00 PM 6.6352 517.8801
10/26/2021 10:30:00 PM 6.6253 494.1349
10/26/2021 10:45:00 PM 6.6167 471.8586
10/26/2021 11:00:00 PM 6.6083 453.3312
10/26/2021 11:15:00 PM 6.6003 434.2129
10/26/2021 11:30:00 PM 6.5926 421.2655
10/26/2021 11:45:00 PM 6.5898 410.3001
10/27/2021 12:00:00 AM 6.5805 396.2788
10/27/2021 12:15:00 AM 6.5753 384.9092
10/27/2021 12:30:00 AM 6.5712 376.8282
10/27/2021 12:45:00 AM 6.5676 369.0659
10/27/2021 1:00:00 AM 6.564 365.877
10/27/2021 1:15:00 AM 6.5608 358.0486
10/27/2021 1:30:00 AM 6.5576 352.6505
10/27/2021 1:45:00 AM 6.5559 350.1956
10/27/2021 2:00:00 AM 6.552 347.4061
10/27/2021 2:15:00 AM 6.549 342.4893
10/27/2021 2:30:00 AM 6.5467 339.4177
10/27/2021 2:45:00 AM 6.5492 334.5998
10/27/2021 3:00:00 AM 6.5408 331.5776
10/27/2021 3:15:00 AM 6.5379 322.1621
10/27/2021 3:30:00 AM 6.5352 319.7879
10/27/2021 3:45:00 AM 6.5324 316.3421
10/27/2021 4:00:00 AM 6.5297 317.6028
10/27/2021 4:15:00 AM 6.5279 314.3884
10/27/2021 4:30:00 AM 6.524 315.0967
10/27/2021 4:45:00 AM 6.5215 309.9278
10/27/2021 5:00:00 AM 6.5186 307.6663
10/27/2021 5:15:00 AM 6.5171 304.8322
10/27/2021 5:30:00 AM 6.5133 300.4285
10/27/2021 5:45:00 AM 6.5142 297.6
10/27/2021 6:00:00 AM 6.5082 303.7244
10/27/2021 6:15:00 AM 6.508 302.8143
10/27/2021 6:30:00 AM 6.5044 299.4578
10/27/2021 6:45:00 AM 6.5037 296.1751
10/27/2021 7:00:00 AM 6.5038 299.7171
10/27/2021 7:15:00 AM 6.503 302.3205
10/27/2021 7:30:00 AM 6.4994 307.3815
10/27/2021 7:45:00 AM 6.4987 290.3199
10/27/2021 8:00:00 AM 6.4989 281.8586
10/27/2021 8:15:00 AM 6.5005 274.1549
10/27/2021 8:30:00 AM 6.5013 268.9646
10/27/2021 8:45:00 AM 6.5002 268.8
10/27/2021 9:00:00 AM 6.4984 260.7947
10/27/2021 9:15:00 AM 6.499 254.7477
10/27/2021 9:30:00 AM 6.4986 249.536
10/27/2021 9:45:00 AM 6.4988 241.5211
10/27/2021 10:00:00 AM 6.4986 238.5193
10/27/2021 10:15:00 AM 6.4978 238.2606
10/27/2021 10:30:00 AM 6.4951 232.0584
10/27/2021 10:45:00 AM 6.494 234.546
10/27/2021 11:00:00 AM 6.4936 266.4313
10/27/2021 11:15:00 AM 6.4945 232.9282
10/27/2021 11:30:00 AM 6.492 212
10/27/2021 11:45:00 AM 6.4876 205.8
10/27/2021 12:00:00 PM 6.4894 199.7623
10/27/2021 12:15:00 PM 6.4862 193.391
10/27/2021 12:30:00 PM 6.4847 191.6207
10/27/2021 12:45:00 PM 6.4837 185.6404
10/27/2021 1:00:00 PM 6.4804 182.6268
10/27/2021 1:15:00 PM 6.4797 180.315
10/27/2021 1:30:00 PM 6.4759 178.411
10/27/2021 1:45:00 PM 6.4749 175.2173
10/27/2021 2:00:00 PM 6.4703 172.0627
10/27/2021 2:15:00 PM 6.4691 167.7625
10/27/2021 2:30:00 PM 6.4652 164.1551
10/27/2021 2:45:00 PM 6.4649 166.914
10/27/2021 3:00:00 PM 6.4649 163.0136
10/27/2021 3:15:00 PM 6.4611 162.7863
10/27/2021 3:30:00 PM 6.4604 165.5174
10/27/2021 3:45:00 PM 6.4602 160.7664
10/27/2021 4:00:00 PM 6.4603 155.5279
10/27/2021 4:15:00 PM 6.46 153.3997
10/27/2021 4:30:00 PM 6.4596 151.256
10/27/2021 4:45:00 PM 6.4584 149.1246
10/27/2021 5:00:00 PM 6.4599 148.3474
10/27/2021 5:15:00 PM 6.4603 145.3409
10/27/2021 5:30:00 PM 6.46 143.1583
10/27/2021 5:45:00 PM 6.461 142.0999
10/27/2021 6:00:00 PM 6.4602 138.2437
10/27/2021 6:15:00 PM 6.4601 138.0169
10/27/2021 6:30:00 PM 6.4635 167.0572
10/27/2021 6:45:00 PM 6.4683 146.6782
10/27/2021 7:00:00 PM 6.468 138.3853
10/27/2021 7:15:00 PM 6.4701 135.3488
10/27/2021 7:30:00 PM 6.4745 131.7196
10/27/2021 7:45:00 PM 6.4755 129.8087
10/27/2021 8:00:00 PM 6.4783 127.7954
10/27/2021 8:15:00 PM 6.48 125.0284
10/27/2021 8:30:00 PM 6.4803 123.8851
10/27/2021 8:45:00 PM 6.4792 123.3
10/27/2021 9:00:00 PM 6.4875 154.9047
10/27/2021 9:15:00 PM 6.4893 128.9743
10/27/2021 9:30:00 PM 6.4893 124.4789
10/27/2021 9:45:00 PM 6.492 123.075
10/27/2021 10:00:00 PM 6.4944 120.3172
10/27/2021 10:15:00 PM 6.4972 118.3086
10/27/2021 10:30:00 PM 6.4991 117.7022
10/27/2021 10:45:00 PM 6.5017 116.7105
10/27/2021 11:00:00 PM 6.5039 116.3868
10/27/2021 11:15:00 PM 6.508 115.6149
10/27/2021 11:30:00 PM 6.5122 114.4706
10/27/2021 11:45:00 PM 6.5142 113.3
10/28/2021 12:00:00 AM 6.5189 113.7363
10/28/2021 12:15:00 AM 6.5215 113.5555
10/28/2021 12:30:00 AM 6.5254 113.1214
10/28/2021 12:45:00 AM 6.5281 111.2967
10/28/2021 1:00:00 AM 6.5303 111.3602
10/28/2021 1:15:00 AM 6.5326 111.1608
10/28/2021 1:30:00 AM 6.5357 110.9622
10/28/2021 1:45:00 AM 6.5381 110.5703
10/28/2021 2:00:00 AM 6.5416 110.2404
10/28/2021 2:15:00 AM 6.5428 109.3591
10/28/2021 2:30:00 AM 6.5461 108.647
10/28/2021 2:45:00 AM 6.5478 108.4001
10/28/2021 3:00:00 AM 6.5507 108.2698
10/28/2021 3:15:00 AM 6.552 107.4042
10/28/2021 3:30:00 AM 6.5534 103.5411
10/28/2021 3:45:00 AM 6.5569 103.2939
10/28/2021 4:00:00 AM 6.5568 103.5214
10/28/2021 4:15:00 AM 6.5575 102.7466
10/28/2021 4:30:00 AM 6.5594 102.5263
10/28/2021 4:45:00 AM 6.5602 100.1985
10/28/2021 5:00:00 AM 6.558 95.7434
10/28/2021 5:15:00 AM 6.5625 95.3252
10/28/2021 5:30:00 AM 6.5634 95.3672
10/28/2021 5:45:00 AM 6.5674 95
10/28/2021 6:00:00 AM 6.5665 101.4052
10/28/2021 6:15:00 AM 6.5692 95.8847
10/28/2021 6:30:00 AM 6.5713 93.9796
10/28/2021 6:45:00 AM 6.5716 93.7576
10/28/2021 7:00:00 AM 6.5719 94.0383
10/28/2021 7:15:00 AM 6.574 94.0663
10/28/2021 7:30:00 AM 6.5765 94.213
10/28/2021 7:45:00 AM 6.5774 94.26
10/28/2021 8:00:00 AM 6.5813 93.8053
10/28/2021 8:15:00 AM 6.5806 93.7483
10/28/2021 8:30:00 AM 6.5823 95.3022
10/28/2021 8:45:00 AM 6.5828 98.8
10/28/2021 9:00:00 AM 6.5854 94.3708
10/28/2021 9:15:00 AM 6.5897 93.2217
10/28/2021 9:30:00 AM 6.5916 93.1922
10/28/2021 9:45:00 AM 6.5924 92.7317
10/28/2021 10:00:00 AM 6.5931 92.6059
10/28/2021 10:15:00 AM 6.5953 92.251
10/28/2021 10:30:00 AM 6.5951 92.2582
10/28/2021 10:45:00 AM 6.5956 92.1033
10/28/2021 11:00:00 AM 6.595 92.0111
10/28/2021 11:15:00 AM 6.5954 91.5662
10/28/2021 11:30:00 AM 6.5971 91.7947
10/28/2021 11:45:00 AM 6.6024 91.5
10/28/2021 12:00:00 PM 6.6008 91.3275
10/28/2021 12:15:00 PM 6.6009 89.326
10/28/2021 12:30:00 PM 6.6004 86.2954
10/28/2021 12:45:00 PM 6.6009 86.098
10/28/2021 1:00:00 PM 6.6005 86.0686
10/28/2021 1:15:00 PM 6.5998 85.4954
10/28/2021 1:30:00 PM 6.6003 85.2666
10/28/2021 1:45:00 PM 6.6009 85.407
10/28/2021 2:00:00 PM 6.6008 85.1156
10/28/2021 2:15:00 PM 6.6005 85.0109
10/28/2021 2:30:00 PM 6.5999 85.08
10/28/2021 2:45:00 PM 6.6006 84.6721
10/28/2021 3:00:00 PM 6.6003 84.5357
10/28/2021 3:15:00 PM 6.6006 84.0755
10/28/2021 3:30:00 PM 6.6003 83.925
10/28/2021 3:45:00 PM 6.6014 83.0841
10/28/2021 4:00:00 PM 6.604 82.5603
10/28/2021 4:15:00 PM 6.604 82.4852
10/28/2021 4:30:00 PM 6.6052 81.935
10/28/2021 4:45:00 PM 6.6053 81.6843
10/28/2021 5:00:00 PM 6.6081 81.8738
10/28/2021 5:15:00 PM 6.6085 81.7308
10/28/2021 5:30:00 PM 6.6102 81.7362
10/28/2021 5:45:00 PM 6.6122 81.7001
10/28/2021 6:00:00 PM 6.6098 81.3534
10/28/2021 6:15:00 PM 6.6098 81.5281
10/28/2021 6:30:00 PM 6.6137 81.3183
10/28/2021 6:45:00 PM 6.6144 92.3835
10/28/2021 7:00:00 PM 6.6187 85.9736
10/28/2021 7:15:00 PM 6.6198 81.4248
10/28/2021 7:30:00 PM 6.6196 79.9482
10/28/2021 7:45:00 PM 6.6196 91.7897
10/28/2021 8:00:00 PM 6.6162 86.458
10/28/2021 8:15:00 PM 6.6196 85.1473
10/28/2021 8:30:00 PM 6.6234 84.6067
10/28/2021 8:45:00 PM 6.6262 84.2
10/28/2021 9:00:00 PM 6.6268 81.3509
10/28/2021 9:15:00 PM 6.6288 81.4953
10/28/2021 9:30:00 PM 6.63 80.7566
10/28/2021 9:45:00 PM 6.6331 81.0532
10/28/2021 10:00:00 PM 6.6347 81.0643
10/28/2021 10:15:00 PM 6.6352 80.2759
10/28/2021 10:30:00 PM 6.6391 80.965
10/28/2021 10:45:00 PM 6.639 81.0187
10/28/2021 11:00:00 PM 6.6401 80.6306
10/28/2021 11:15:00 PM 6.6434 80.0886
10/28/2021 11:30:00 PM 6.6435 80.1858
10/28/2021 11:45:00 PM 6.6458 80.1
10/29/2021 12:00:00 AM 6.648 79.6467
10/29/2021 12:15:00 AM 6.6484 79.3965
10/29/2021 12:30:00 AM 6.6485 79.1467
10/29/2021 12:45:00 AM 6.6495 79.1996
10/29/2021 1:00:00 AM 6.653 79.1069
10/29/2021 1:15:00 AM 6.6538 79.8855
10/29/2021 1:30:00 AM 6.6567 80.6795
10/29/2021 1:45:00 AM 6.6579 80.2274
10/29/2021 2:00:00 AM 6.6589 80.2621
10/29/2021 2:15:00 AM 6.6622 80.2629
10/29/2021 2:30:00 AM 6.6628 81.4401
10/29/2021 2:45:00 AM 6.6612 81.6001
10/29/2021 3:00:00 AM 6.6632 79.9415
10/29/2021 3:15:00 AM 6.6641 80.8845
10/29/2021 3:30:00 AM 6.6658 81.1912
10/29/2021 3:45:00 AM 6.6679 79.7836
10/29/2021 4:00:00 AM 6.6683 85.7565
10/29/2021 4:15:00 AM 6.6678 78.9111
10/29/2021 4:30:00 AM 6.6673 78.2359
10/29/2021 4:45:00 AM 6.6685 77.9596
10/29/2021 5:00:00 AM 6.6717 77.6265
10/29/2021 5:15:00 AM 6.6724 77.5842
10/29/2021 5:30:00 AM 6.6724 78.2871
10/29/2021 5:45:00 AM 6.6752 76.6
10/29/2021 6:00:00 AM 6.6775 75.5801
10/29/2021 6:15:00 AM 6.6779 76.4163
10/29/2021 6:30:00 AM 6.6774 77.474
10/29/2021 6:45:00 AM 6.6781 77.9325
10/29/2021 7:00:00 AM 6.6804 77.4314
10/29/2021 7:15:00 AM 6.6821 77.2864
10/29/2021 7:30:00 AM 6.6827 77.4558
10/29/2021 7:45:00 AM 6.6832 76.8102
10/29/2021 8:00:00 AM 6.6872 76.0182
10/29/2021 8:15:00 AM 6.6876 75.4417
10/29/2021 8:30:00 AM 6.6892 75.0064
10/29/2021 8:45:00 AM 6.692 75.5
10/29/2021 9:00:00 AM 6.6924 77.2486
10/29/2021 9:15:00 AM 6.6961 77.2446
10/29/2021 9:30:00 AM 6.6972 75.4074
10/29/2021 9:45:00 AM 6.6994 75.5511
10/29/2021 10:00:00 AM 6.7017 75.2024
10/29/2021 10:15:00 AM 6.702 72.6485
10/29/2021 10:30:00 AM 6.7016 71.7536
10/29/2021 10:45:00 AM 6.7017 88.9677
10/29/2021 11:00:00 AM 6.7019 82.3426
10/29/2021 11:15:00 AM 6.7019 70.6072
10/29/2021 11:30:00 AM 6.7019 70.1956
10/29/2021 11:45:00 AM 6.7032 70.4
10/29/2021 12:00:00 PM 6.6995 69.8802
10/29/2021 12:15:00 PM 6.6979 73.4647
10/29/2021 12:30:00 PM 6.6974 72.5459
10/29/2021 12:45:00 PM 6.6972 71.9753
10/29/2021 1:00:00 PM 6.6974 70.7759
10/29/2021 1:15:00 PM 6.6971 70.2115
10/29/2021 1:30:00 PM 6.697 69.7648
10/29/2021 1:45:00 PM 6.6965 69.5599
10/29/2021 2:00:00 PM 6.6946 69.8965
10/29/2021 2:15:00 PM 6.6936 70.0961
10/29/2021 2:30:00 PM 6.6933 70.2832
10/29/2021 2:45:00 PM 6.6956 70.3222
10/29/2021 3:00:00 PM 6.6971 70.8291
10/29/2021 3:15:00 PM 6.6974 71.4547
10/29/2021 3:30:00 PM 6.6974 71.2637
10/29/2021 3:45:00 PM 6.6975 70.9755
10/29/2021 4:00:00 PM 6.698 71.5
10/29/2021 4:15:00 PM 6.6998 74.1505
10/29/2021 4:30:00 PM 6.7016 72.849
10/29/2021 4:45:00 PM 6.702 73.9458
10/29/2021 5:00:00 PM 6.7021 75.3171
10/29/2021 5:15:00 PM 6.702 75.2439
10/29/2021 5:30:00 PM 6.7041 78.297
10/29/2021 5:45:00 PM 6.7074 75.4
10/29/2021 6:00:00 PM 6.7116 74.6123
10/29/2021 6:15:00 PM 6.713 72.2069
10/29/2021 6:30:00 PM 6.7118 71.4603
10/29/2021 6:45:00 PM 6.7116 70.7971
10/29/2021 7:00:00 PM 6.7116 68.5029
10/29/2021 7:15:00 PM 6.7116 67.6628
10/29/2021 7:30:00 PM 6.7108 68.0476
10/29/2021 7:45:00 PM 6.7107 67.4908
10/29/2021 8:00:00 PM 6.7086 68.0461
10/29/2021 8:15:00 PM 6.7094 68.0057
10/29/2021 8:30:00 PM 6.7115 68.1783
10/29/2021 8:45:00 PM 6.713 68.1
10/29/2021 9:00:00 PM 6.7117 68.242
10/29/2021 9:15:00 PM 6.7118 68.4872
10/29/2021 9:30:00 PM 6.7116 68.0387
10/29/2021 9:45:00 PM 6.7108 78.86
10/29/2021 10:00:00 PM 6.7121 74.5772
10/29/2021 10:15:00 PM 6.7162 73.1295
10/29/2021 10:30:00 PM 6.7194 73.1536
10/29/2021 10:45:00 PM 6.7206 72.5603
10/29/2021 11:00:00 PM 6.721 72.9863
10/29/2021 11:15:00 PM 6.7212 73.4676
10/29/2021 11:30:00 PM 6.7243 72.3509
10/29/2021 11:45:00 PM 6.7242 72.8999
10/30/2021 12:00:00 AM 6.7377 109.742
10/30/2021 12:15:00 AM 6.7582 214.1484
10/30/2021 12:30:00 AM 6.784 394.1732
10/30/2021 12:45:00 AM 6.8045 505.3696
10/30/2021 1:00:00 AM 6.816 524.4932
10/30/2021 1:15:00 AM 6.8176 472.4812
10/30/2021 1:30:00 AM 6.8129 411.2621
10/30/2021 1:45:00 AM 6.8094 352.0491
10/30/2021 2:00:00 AM 6.8052 302.1206
10/30/2021 2:15:00 AM 6.7996 258.4858
10/30/2021 2:30:00 AM 6.7956 221.6413
10/30/2021 2:45:00 AM 6.7914 200.3004
10/30/2021 3:00:00 AM 6.7876 165.5019
10/30/2021 3:15:00 AM 6.7836 147.8282
10/30/2021 3:30:00 AM 6.7823 133.4129
10/30/2021 3:45:00 AM 6.779 122.2689
10/30/2021 4:00:00 AM 6.7781 117.7335
10/30/2021 4:15:00 AM 6.7736 115.3007
10/30/2021 4:30:00 AM 6.7756 103.11
10/30/2021 4:45:00 AM 6.7749 98.9875
10/30/2021 5:00:00 AM 6.7744 97.8196
10/30/2021 5:15:00 AM 6.7739 97.2859
10/30/2021 5:30:00 AM 6.7739 96.5755
10/30/2021 5:45:00 AM 6.7732 96.8
10/30/2021 6:00:00 AM 6.7687 98.2792
10/30/2021 6:15:00 AM 6.7685 101.4333
10/30/2021 6:30:00 AM 6.767 103.4029
10/30/2021 6:45:00 AM 6.7649 104.8325
10/30/2021 7:00:00 AM 6.7639 105.6939
10/30/2021 7:15:00 AM 6.7612 105.1208
10/30/2021 7:30:00 AM 6.7593 104.338
10/30/2021 7:45:00 AM 6.7592 103.0875
10/30/2021 8:00:00 AM 6.7586 102.1559
10/30/2021 8:15:00 AM 6.7577 100.3191
10/30/2021 8:30:00 AM 6.7573 100.3137
10/30/2021 8:45:00 AM 6.7564 104.9
10/30/2021 9:00:00 AM 6.7591 97.0802
10/30/2021 9:15:00 AM 6.7592 93.5046
10/30/2021 9:30:00 AM 6.7574 91.7776
10/30/2021 9:45:00 AM 6.7547 89.3202
10/30/2021 10:00:00 AM 6.7546 87.258
10/30/2021 10:15:00 AM 6.7544 84.7194
10/30/2021 10:30:00 AM 6.753 82.801
10/30/2021 10:45:00 AM 6.7515 81.739
10/30/2021 11:00:00 AM 6.7514 79.9988
10/30/2021 11:15:00 AM 6.7743 75.7371
10/30/2021 11:30:00 AM 6.817 72.1819
10/30/2021 11:45:00 AM 6.839 72.4
10/30/2021 12:00:00 PM 6.8738 76.1303
10/30/2021 12:15:00 PM 6.891 78.112
10/30/2021 12:30:00 PM 6.8959 78.9968
10/30/2021 12:45:00 PM 6.893 76.6577
10/30/2021 1:00:00 PM 6.8919 72.5479
10/30/2021 1:15:00 PM 6.8982 70.3866
10/30/2021 1:30:00 PM 6.8985 72.4274
10/30/2021 1:45:00 PM 6.8861 73.162
10/30/2021 2:00:00 PM 6.8763 60.6096
10/30/2021 2:15:00 PM 6.877 53.8044
10/30/2021 2:30:00 PM 6.8737 56.8914
10/30/2021 2:45:00 PM 6.8697 56.9635
10/30/2021 3:00:00 PM 6.8575 56.053
10/30/2021 3:15:00 PM 6.8555 57.9309
10/30/2021 3:30:00 PM 6.8552 59.6785
10/30/2021 3:45:00 PM 6.8538 59.6812
10/30/2021 4:00:00 PM 6.8538 62.439
10/30/2021 4:15:00 PM 6.8573 61.9193
10/30/2021 4:30:00 PM 6.8507 60.3129
10/30/2021 4:45:00 PM 6.8517 58.4226
10/30/2021 5:00:00 PM 6.8485 58.1681
10/30/2021 5:15:00 PM 6.8502 57.5725
10/30/2021 5:30:00 PM 6.8519 60.7849
10/30/2021 5:45:00 PM 6.8558 60.7
10/30/2021 6:00:00 PM 6.8424 59.8008
10/30/2021 6:15:00 PM 6.8364 60.0895
10/30/2021 6:30:00 PM 6.8432 58.6549
10/30/2021 6:45:00 PM 6.8428 58.9773
10/30/2021 7:00:00 PM 6.841 60.732
10/30/2021 7:15:00 PM 6.8363 61.54
10/30/2021 7:30:00 PM 6.8354 62.2612
10/30/2021 7:45:00 PM 6.8369 61.0585
10/30/2021 8:00:00 PM 6.8368 62.4122
10/30/2021 8:15:00 PM 6.8395 63.252
10/30/2021 8:30:00 PM 6.8413 62.2606
10/30/2021 8:45:00 PM 6.846 62.6001
10/30/2021 9:00:00 PM 6.8337 66.3853
10/30/2021 9:15:00 PM 6.826 61.7583
10/30/2021 9:30:00 PM 6.8258 62.4882
10/30/2021 9:45:00 PM 6.8276 60.5877
10/30/2021 10:00:00 PM 6.8292 60.2252
10/30/2021 10:15:00 PM 6.8264 60.0686
10/30/2021 10:30:00 PM 6.8316 60.5218
10/30/2021 10:45:00 PM 6.8338 61.3753
10/30/2021 11:00:00 PM 6.8301 61.4127
10/30/2021 11:15:00 PM 6.8319 60.9081
10/30/2021 11:30:00 PM 6.8324 60.8936
10/30/2021 11:45:00 PM 6.8306 60.5
10/31/2021 12:00:00 AM 6.8384 62.741
10/31/2021 12:15:00 AM 6.8383 63.0289
10/31/2021 12:30:00 AM 6.8422 64.0894
10/31/2021 12:45:00 AM 6.8442 66.0216
10/31/2021 1:00:00 AM 6.8437 61.0318
10/31/2021 1:15:00 AM 6.8435 61.4494
10/31/2021 1:30:00 AM 6.8465 60.9981
10/31/2021 1:45:00 AM 6.8504 61.23
10/31/2021 2:00:00 AM 6.8443 60.8014
10/31/2021 2:15:00 AM 6.8427 60.7763
10/31/2021 2:30:00 AM 6.8414 61.2917
10/31/2021 2:45:00 AM 6.8432 61.0998
10/31/2021 3:00:00 AM 6.8496 61.4516
10/31/2021 3:15:00 AM 6.85 61.5597
10/31/2021 3:30:00 AM 6.8541 62.9742
10/31/2021 3:45:00 AM 6.8552 41.3431
10/31/2021 4:00:00 AM 6.8538 23.8332
10/31/2021 4:15:00 AM 6.8506 20.6934
10/31/2021 4:30:00 AM 6.8553 21.4057
10/31/2021 4:45:00 AM 6.8561 19.9728
10/31/2021 5:00:00 AM 6.8589 20.1971
10/31/2021 5:15:00 AM 6.8551 19.4523
10/31/2021 5:30:00 AM 6.8626 19.5429
10/31/2021 5:45:00 AM 6.8698 18.9
10/31/2021 6:00:00 AM 6.8594 19.1763
10/31/2021 6:15:00 AM 6.8702 18.6136
10/31/2021 6:30:00 AM 6.8807 19.0117
10/31/2021 6:45:00 AM 6.8675 18.2852
10/31/2021 7:00:00 AM 6.8644 18.9491
10/31/2021 7:15:00 AM 6.8623 18.1588
10/31/2021 7:30:00 AM 6.8658 18.57
10/31/2021 7:45:00 AM 6.8647 18.0477
10/31/2021 8:00:00 AM 6.8687 18.3882
10/31/2021 8:15:00 AM 6.8665 17.8767
10/31/2021 8:30:00 AM 6.8609 18.1009
10/31/2021 8:45:00 AM 6.8614 17.6
10/31/2021 9:00:00 AM 6.8742 18.0688
10/31/2021 9:15:00 AM 6.8677 17.9705
10/31/2021 9:30:00 AM 6.8703 17.2658
10/31/2021 9:45:00 AM 6.8683 16.5635
10/31/2021 10:00:00 AM 6.8651 16.7312
10/31/2021 10:15:00 AM 6.8761 16.206
10/31/2021 10:30:00 AM 6.8867 16.4672
10/31/2021 10:45:00 AM 6.877 16.1131
10/31/2021 11:00:00 AM 6.8713 16.3235
10/31/2021 11:15:00 AM 6.869 15.8752
10/31/2021 11:30:00 AM 6.8725 16.1454
10/31/2021 11:45:00 AM 6.8768 15.6
10/31/2021 12:00:00 PM 6.8728 15.706
10/31/2021 12:15:00 PM 6.8784 15.5689
10/31/2021 12:30:00 PM 6.8771 15.7348
10/31/2021 12:45:00 PM 6.8748 15.5133
10/31/2021 1:00:00 PM 6.8745 15.7453
10/31/2021 1:15:00 PM 6.8789 15.4625
10/31/2021 1:30:00 PM 6.8812 15.7582
10/31/2021 1:45:00 PM 6.8805 15.5423
10/31/2021 2:00:00 PM 6.8816 15.7049
10/31/2021 2:15:00 PM 6.8803 15.3503
10/31/2021 2:30:00 PM 6.8811 15.5124
10/31/2021 2:45:00 PM 6.8883 15.2919
10/31/2021 3:00:00 PM 6.8917 15.4017
10/31/2021 3:15:00 PM 6.8883 15.525
10/31/2021 3:30:00 PM 6.887 16.2278
10/31/2021 3:45:00 PM 6.8886 16.1927
10/31/2021 4:00:00 PM 6.8899 16.6662
10/31/2021 4:15:00 PM 6.8889 16.0517
10/31/2021 4:30:00 PM 6.9021 16.0458
10/31/2021 4:45:00 PM 6.9059 15.342
10/31/2021 5:00:00 PM 6.9053 15.3249
10/31/2021 5:15:00 PM 6.9023 15.6956
10/31/2021 5:30:00 PM 6.8969 16.202
10/31/2021 5:45:00 PM 6.8964 15.5
10/31/2021 6:00:00 PM 6.9135 15.0531
10/31/2021 6:15:00 PM 6.9095 14.6973
10/31/2021 6:30:00 PM 6.9024 14.7561
10/31/2021 6:45:00 PM 6.9098 14.6594
10/31/2021 7:00:00 PM 6.9177 15.0035
10/31/2021 7:15:00 PM 6.9168 15.004
10/31/2021 7:30:00 PM 6.9129 15.4932
10/31/2021 7:45:00 PM 6.9144 15.2548
10/31/2021 8:00:00 PM 6.9167 15.3653
10/31/2021 8:15:00 PM 6.929 15.2014
10/31/2021 8:30:00 PM 6.926 15.3016
10/31/2021 8:45:00 PM 6.9244 15.1
10/31/2021 9:00:00 PM 6.9232 18.8586
10/31/2021 9:15:00 PM 6.911 17.2971
10/31/2021 9:30:00 PM 6.9127 17.544
10/31/2021 9:45:00 PM 6.9129 16.8295
10/31/2021 10:00:00 PM 6.9092 17.9799
10/31/2021 10:15:00 PM 6.9122 17.9672
10/31/2021 10:30:00 PM 6.9122 18.3532
10/31/2021 10:45:00 PM 6.9097 17.4434
10/31/2021 11:00:00 PM 6.9088 17.5458
10/31/2021 11:15:00 PM 6.9044 17.5315
10/31/2021 11:30:00 PM 6.9094 17.6362
10/31/2021 11:45:00 PM 6.909 17
11/1/2021 12:00:00 AM 6.9093 17.2175
11/1/2021 12:15:00 AM 6.9067 17.4189
11/1/2021 12:30:00 AM 6.9182 18.1396
11/1/2021 12:45:00 AM 6.9164 17.5414
11/1/2021 1:00:00 AM 6.9158 17.5131
11/1/2021 1:15:00 AM 6.9118 16.9288
11/1/2021 1:30:00 AM 6.9033 17.1557
11/1/2021 1:45:00 AM 6.9015 16.7376
11/1/2021 2:00:00 AM 6.9024 17.2508
11/1/2021 2:15:00 AM 6.9052 16.8023
11/1/2021 2:30:00 AM 6.9075 17.2618
11/1/2021 2:45:00 AM 6.9118 17.1999
11/1/2021 3:00:00 AM 6.9276 17.1324
11/1/2021 3:15:00 AM 6.9414 16.9773
11/1/2021 3:30:00 AM 6.9401 17.4243
11/1/2021 3:45:00 AM 6.9401 16.4847
11/1/2021 4:00:00 AM 6.9335 16.7325
11/1/2021 4:15:00 AM 6.94 15.7388
11/1/2021 4:30:00 AM 6.9424 15.7774
11/1/2021 4:45:00 AM 6.9545 15.2904
11/1/2021 5:00:00 AM 6.949 15.3368
11/1/2021 5:15:00 AM 6.941 15.0773
11/1/2021 5:30:00 AM 6.9381 15.1749
11/1/2021 5:45:00 AM 6.937 15.1001
11/1/2021 6:00:00 AM 6.9355 15.3273
11/1/2021 6:15:00 AM 6.9374 15.2169
11/1/2021 6:30:00 AM 6.9345 15.467
11/1/2021 6:45:00 AM 6.9464 15.1795
11/1/2021 7:00:00 AM 6.9442 15.3365
11/1/2021 7:15:00 AM 6.9409 14.934
11/1/2021 7:30:00 AM 6.9368 14.9612
11/1/2021 7:45:00 AM 6.9369 14.705
11/1/2021 8:00:00 AM 6.9339 16.839
11/1/2021 8:15:00 AM 6.9381 16.2808
11/1/2021 8:30:00 AM 6.9441 17.503
11/1/2021 8:45:00 AM 6.9426 16.4
11/1/2021 9:00:00 AM 6.9515 16.3154
11/1/2021 9:15:00 AM 6.9567 16.8718
11/1/2021 9:30:00 AM 6.9648 16.5093
11/1/2021 9:45:00 AM 6.9653 16.5521
11/1/2021 10:00:00 AM 6.9671 18.0052
11/1/2021 10:15:00 AM 6.9656 18.3116
11/1/2021 10:30:00 AM 6.9699 20.2932
11/1/2021 10:45:00 AM 6.9796 19.8748
11/1/2021 11:00:00 AM 6.9804 29.2707
11/1/2021 11:15:00 AM 6.9849 52.0068
11/1/2021 11:30:00 AM 6.9809 34.3698
11/1/2021 11:45:00 AM 6.993 20.3
11/1/2021 12:00:00 PM 6.99 20.4204
11/1/2021 12:15:00 PM 6.9808 18.2514
11/1/2021 12:30:00 PM 6.9717 18.2183
11/1/2021 12:45:00 PM 6.9716 16.8173
11/1/2021 1:00:00 PM 6.9802 16.6337
11/1/2021 1:15:00 PM 6.9831 15.4712
11/1/2021 1:30:00 PM 6.9925 15.2797
11/1/2021 1:45:00 PM 7.0033 14.5256
11/1/2021 2:00:00 PM 6.9947 14.5157
11/1/2021 2:15:00 PM 6.9884 14.0491
11/1/2021 2:30:00 PM 6.9825 13.9809
11/1/2021 2:45:00 PM 6.9826 13.5964
11/1/2021 3:00:00 PM 7.0071 13.8652
11/1/2021 3:15:00 PM 7.0058 14.5472
11/1/2021 3:30:00 PM 7.0086 15.1876
11/1/2021 3:45:00 PM 7.0078 31.2139
11/1/2021 4:00:00 PM 7.0043 18.6911
11/1/2021 4:15:00 PM 7.0306 17.001
11/1/2021 4:30:00 PM 7.0463 16.4127
11/1/2021 4:45:00 PM 7.0422 15.7912
11/1/2021 5:00:00 PM 7.0231 15.6877
11/1/2021 5:15:00 PM 7.0165 15.3804
11/1/2021 5:30:00 PM 7.0077 15.0272
11/1/2021 5:45:00 PM 7.0042 14.9
11/1/2021 6:00:00 PM 7.0148 14.4409
11/1/2021 6:15:00 PM 7.0142 14.1622
11/1/2021 6:30:00 PM 7.0164 13.9569
11/1/2021 6:45:00 PM 7.0201 14.6239
11/1/2021 7:00:00 PM 7.0334 14.2792
11/1/2021 7:15:00 PM 7.0239 16.2186
11/1/2021 7:30:00 PM 7.0253 16.1372
11/1/2021 7:45:00 PM 7.0255 15.5472
11/1/2021 8:00:00 PM 7.0211 14.904
11/1/2021 8:15:00 PM 7.0131 14.5876
11/1/2021 8:30:00 PM 7.013 14.5591
11/1/2021 8:45:00 PM 7.014 14.5
11/1/2021 9:00:00 PM 7.0141 14.6205
11/1/2021 9:15:00 PM 7.0091 14.5262
11/1/2021 9:30:00 PM 7.0091 14.401
11/1/2021 9:45:00 PM 7.0079 14.2798
11/1/2021 10:00:00 PM 7.0051 14.4213
11/1/2021 10:15:00 PM 7.0049 14.3937
11/1/2021 10:30:00 PM 7.0076 14.5108
11/1/2021 10:45:00 PM 7.0057 14.3534
11/1/2021 11:00:00 PM 7.0154 14.6728
11/1/2021 11:15:00 PM 7.0148 14.371
11/1/2021 11:30:00 PM 7.0159 14.2326
11/1/2021 11:45:00 PM 7.0098 14.1
11/2/2021 12:00:00 AM 7.0105 14.225
11/2/2021 12:15:00 AM 7.006 14.1973
11/2/2021 12:30:00 AM 7.0065 14.1147
11/2/2021 12:45:00 AM 7.0042 14.0568
11/2/2021 1:00:00 AM 7.0073 13.9302
11/2/2021 1:15:00 AM 7.0071 13.9562
11/2/2021 1:30:00 AM 7.006 14.0028
11/2/2021 1:45:00 AM 7.0073 13.9267
11/2/2021 2:00:00 AM 7.0078 13.8251
11/2/2021 2:15:00 AM 7.0071 13.8344
11/2/2021 2:30:00 AM 7.0077 13.8747
11/2/2021 2:45:00 AM 7.0098 13.7999
11/2/2021 3:00:00 AM 7.0035 13.7375
11/2/2021 3:15:00 AM 7.0027 13.6559
11/2/2021 3:30:00 AM 7.0049 13.8674
11/2/2021 3:45:00 AM 7.0096 13.5403
11/2/2021 4:00:00 AM 7.008 13.4451
11/2/2021 4:15:00 AM 7.0131 12.9688
11/2/2021 4:30:00 AM 7.0249 12.7674
11/2/2021 4:45:00 AM 7.0314 12.6547
11/2/2021 5:00:00 AM 7.0211 12.6781
11/2/2021 5:15:00 AM 7.039 12.7122
11/2/2021 5:30:00 AM 7.0018 13.2425
11/2/2021 5:45:00 AM 6.9804 13.4999
11/2/2021 6:00:00 AM 6.9643 12.7896
11/2/2021 6:15:00 AM 6.9602 12.5851
11/2/2021 6:30:00 AM 6.9604 12.5669
11/2/2021 6:45:00 AM 6.9608 12.5724
11/2/2021 7:00:00 AM 6.961 12.7231
11/2/2021 7:15:00 AM 6.9616 12.6945
11/2/2021 7:30:00 AM 6.9607 12.8492
11/2/2021 7:45:00 AM 6.9601 12.7751
11/2/2021 8:00:00 AM 6.9603 12.675
11/2/2021 8:15:00 AM 6.9601 12.5992
11/2/2021 8:30:00 AM 6.9579 12.6289
11/2/2021 8:45:00 AM 6.958 12.6
11/2/2021 9:00:00 AM 6.9555 12.4274
11/2/2021 9:15:00 AM 6.9571 13.4349
11/2/2021 9:30:00 AM 6.9573 12.6098
11/2/2021 9:45:00 AM 6.9567 12.3165
11/2/2021 10:00:00 AM 6.9559 12.1728
11/2/2021 10:15:00 AM 6.9554 12.0619
11/2/2021 10:30:00 AM 6.9555 12.0544
11/2/2021 10:45:00 AM 6.9551 12.0031
11/2/2021 11:00:00 AM 6.9552 12.0643
11/2/2021 11:15:00 AM 6.9555 12.0218
11/2/2021 11:30:00 AM 6.9555 11.893
11/2/2021 11:45:00 AM 6.9566 11.8
11/2/2021 12:00:00 PM 6.9561 11.9231
11/2/2021 12:15:00 PM 6.9562 11.9322
11/2/2021 12:30:00 PM 6.9568 12.2249
11/2/2021 12:45:00 PM 6.96 12.3106
11/2/2021 1:00:00 PM 6.9607 12.4284
11/2/2021 1:15:00 PM 6.9603 12.7441
11/2/2021 1:30:00 PM 6.9601 12.7769
11/2/2021 1:45:00 PM 6.9615 12.6074
11/2/2021 2:00:00 PM 6.9646 12.5918
11/2/2021 2:15:00 PM 6.9626 12.6315
11/2/2021 2:30:00 PM 6.9644 12.6875
11/2/2021 2:45:00 PM 6.9649 12.7658
11/2/2021 3:00:00 PM 6.965 12.6578
11/2/2021 3:15:00 PM 6.9656 12.494
11/2/2021 3:30:00 PM 6.9664 12.5047
11/2/2021 3:45:00 PM 6.9691 12.9577
11/2/2021 4:00:00 PM 6.9698 13.0023
11/2/2021 4:15:00 PM 6.9701 12.9098
11/2/2021 4:30:00 PM 6.9707 12.7585
11/2/2021 4:45:00 PM 6.972 12.5965
11/2/2021 5:00:00 PM 6.9735 14.3189
11/2/2021 5:15:00 PM 6.9748 17.5297
11/2/2021 5:30:00 PM 6.975 17.5632
11/2/2021 5:45:00 PM 6.972 17
11/2/2021 6:00:00 PM 6.9789 14.7504
11/2/2021 6:15:00 PM 6.9795 14.7434
11/2/2021 6:30:00 PM 6.9792 15.1113
11/2/2021 6:45:00 PM 6.9802 13.277
11/2/2021 7:00:00 PM 6.9823 13.4405
11/2/2021 7:15:00 PM 6.9773 16.114
11/2/2021 7:30:00 PM 6.982 14.0371
11/2/2021 7:45:00 PM 6.9847 13.5426
11/2/2021 8:00:00 PM 6.9867 13.5422
11/2/2021 8:15:00 PM 6.9897 13.4649
11/2/2021 8:30:00 PM 6.9893 13.1766
11/2/2021 8:45:00 PM 6.9958 13.2
11/2/2021 9:00:00 PM 6.9937 13.0158
11/2/2021 9:15:00 PM 6.9941 13.0125
11/2/2021 9:30:00 PM 6.9941 13.1352
11/2/2021 9:45:00 PM 6.9938 13.1993
11/2/2021 10:00:00 PM 6.9968 12.8386
11/2/2021 10:15:00 PM 6.9986 12.6715
11/2/2021 10:30:00 PM 6.9989 12.8408
11/2/2021 10:45:00 PM 6.9988 12.8002
11/2/2021 11:00:00 PM 6.999 12.8399
11/2/2021 11:15:00 PM 6.9993 12.7995
11/2/2021 11:30:00 PM 7.0024 12.9148
11/2/2021 11:45:00 PM 7.0014 12.9
11/3/2021 12:00:00 AM 7.004 12.9032
11/3/2021 12:15:00 AM 7.0043 13.4274
11/3/2021 12:30:00 AM 7.0039 13.5303
11/3/2021 12:45:00 AM 7.0044 13.6534
11/3/2021 1:00:00 AM 7.0049 13.1739
11/3/2021 1:15:00 AM 7.0085 13.8099
11/3/2021 1:30:00 AM 7.0085 13.8914
11/3/2021 1:45:00 AM 7.0086 13.5658
11/3/2021 2:00:00 AM 7.01 13.202
11/3/2021 2:15:00 AM 7.0135 12.7816
11/3/2021 2:30:00 AM 7.0145 13.2131
11/3/2021 2:45:00 AM 7.014 13.1
11/3/2021 3:00:00 AM 7.0187 12.3657
11/3/2021 3:15:00 AM 7.0213 12.2723
11/3/2021 3:30:00 AM 7.0234 12.3439
11/3/2021 3:45:00 AM 7.024 12.3869
11/3/2021 4:00:00 AM 7.0275 12.3163
11/3/2021 4:15:00 AM 7.0283 12.3171
11/3/2021 4:30:00 AM 7.0315 12.8574
11/3/2021 4:45:00 AM 7.0276 13.1057
11/3/2021 5:00:00 AM 7.0329 13.3109
11/3/2021 5:15:00 AM 7.0327 12.7582
11/3/2021 5:30:00 AM 7.0339 12.4951
11/3/2021 5:45:00 AM 7.035 12.3
11/3/2021 6:00:00 AM 7.0371 11.642
11/3/2021 6:15:00 AM 7.0376 11.5665
11/3/2021 6:30:00 AM 7.038 11.6561
11/3/2021 6:45:00 AM 7.0373 11.5408
11/3/2021 7:00:00 AM 7.0395 11.6528
11/3/2021 7:15:00 AM 7.0378 11.7435
11/3/2021 7:30:00 AM 7.0377 13.1632
11/3/2021 7:45:00 AM 7.0382 31.2099
11/3/2021 8:00:00 AM 7.0382 15.2281
11/3/2021 8:15:00 AM 7.0381 15.0994
11/3/2021 8:30:00 AM 7.0375 14.0531
11/3/2021 8:45:00 AM 7.035 13.5
11/3/2021 9:00:00 AM 7.038 12.8877
11/3/2021 9:15:00 AM 7.038 12.0274
11/3/2021 9:30:00 AM 7.0403 12.4694
11/3/2021 9:45:00 AM 7.0419 11.0577
11/3/2021 10:00:00 AM 7.0375 10.5673
11/3/2021 10:15:00 AM 7.0374 10.7324
11/3/2021 10:30:00 AM 7.0377 10.6551
11/3/2021 10:45:00 AM 7.0381 10.5732
11/3/2021 11:00:00 AM 7.0392 10.5412
11/3/2021 11:15:00 AM 7.0386 10.4401
11/3/2021 11:30:00 AM 7.0383 10.4498
11/3/2021 11:45:00 AM 7.0392 10.5
11/3/2021 12:00:00 PM 7.0395 10.4793
11/3/2021 12:15:00 PM 7.0417 10.4335
11/3/2021 12:30:00 PM 7.0426 10.9334
11/3/2021 12:45:00 PM 7.0436 11.5334
11/3/2021 1:00:00 PM 7.0462 11.8437
11/3/2021 1:15:00 PM 7.0471 12.2703
11/3/2021 1:30:00 PM 7.047 12.2546
11/3/2021 1:45:00 PM 7.047 12.2818
11/3/2021 2:00:00 PM 7.049 12.2244
11/3/2021 2:15:00 PM 7.0514 12.0318
11/3/2021 2:30:00 PM 7.0514 11.78
11/3/2021 2:45:00 PM 7.0503 11.2583
11/3/2021 3:00:00 PM 7.0519 10.8279
11/3/2021 3:15:00 PM 7.0555 10.4294
11/3/2021 3:30:00 PM 7.0567 10.2036
11/3/2021 3:45:00 PM 7.0579 9.9812
11/3/2021 4:00:00 PM 7.0613 9.897
11/3/2021 4:15:00 PM 7.0615 9.7906
11/3/2021 4:30:00 PM 7.0613 9.6756
11/3/2021 4:45:00 PM 7.062 9.6666
11/3/2021 5:00:00 PM 7.0656 9.7824
11/3/2021 5:15:00 PM 7.0684 9.8056
11/3/2021 5:30:00 PM 7.0712 10.0301
11/3/2021 5:45:00 PM 7.0686 10.0999
11/3/2021 6:00:00 PM 7.076 12.3684
11/3/2021 6:15:00 PM 7.0768 10.7842
11/3/2021 6:30:00 PM 7.0805 9.8932
11/3/2021 6:45:00 PM 7.0809 9.511
11/3/2021 7:00:00 PM 7.084 9.3709
11/3/2021 7:15:00 PM 7.0857 9.4893
11/3/2021 7:30:00 PM 7.0884 9.8738
11/3/2021 7:45:00 PM 7.0904 9.8794
11/3/2021 8:00:00 PM 7.0949 9.986
11/3/2021 8:15:00 PM 7.0956 10.036
11/3/2021 8:30:00 PM 7.1002 11.5271
11/3/2021 8:45:00 PM 7.1022 11.8
11/3/2021 9:00:00 PM 7.1039 10.6195
11/3/2021 9:15:00 PM 7.1048 10.1098
11/3/2021 9:30:00 PM 7.1077 9.7752
11/3/2021 9:45:00 PM 7.0952 13.1952
11/3/2021 10:00:00 PM 7.1062 12.0782
11/3/2021 10:15:00 PM 7.1135 11.3184
11/3/2021 10:30:00 PM 7.1186 11.0186
11/3/2021 10:45:00 PM 7.1194 10.8921
11/3/2021 11:00:00 PM 7.1233 10.7674
11/3/2021 11:15:00 PM 7.124 10.7851
11/3/2021 11:30:00 PM 7.1278 11.1067
11/3/2021 11:45:00 PM 7.1316 11.1
11/4/2021 12:00:00 AM 7.1311 11.9367
11/4/2021 12:15:00 AM 7.134 11.5831
11/4/2021 12:30:00 AM 7.1358 10.9934
11/4/2021 12:45:00 AM 7.1388 11.8242
11/4/2021 1:00:00 AM 7.1388 11.952
11/4/2021 1:15:00 AM 7.1414 11.4016
11/4/2021 1:30:00 AM 7.1442 11.2042
11/4/2021 1:45:00 AM 7.1449 10.7685
11/4/2021 2:00:00 AM 7.1481 10.3042
11/4/2021 2:15:00 AM 7.1522 9.9712
11/4/2021 2:30:00 AM 7.1565 9.955
11/4/2021 2:45:00 AM 7.1596 9.9999
11/4/2021 3:00:00 AM 7.1615 10.327
11/4/2021 3:15:00 AM 7.1629 10.1922
11/4/2021 3:30:00 AM 7.1658 10.1014
11/4/2021 3:45:00 AM 7.169 10.0455
11/4/2021 4:00:00 AM 7.1733 10.2162
11/4/2021 4:15:00 AM 7.1659 10.2621
11/4/2021 4:30:00 AM 7.1739 9.8132
11/4/2021 4:45:00 AM 7.1777 9.3449
11/4/2021 5:00:00 AM 7.1797 9.0576
11/4/2021 5:15:00 AM 7.1823 8.9248
11/4/2021 5:30:00 AM 7.1831 9.2025
11/4/2021 5:45:00 AM 7.1848 9.3
11/4/2021 6:00:00 AM 7.1873 9.1906
11/4/2021 6:15:00 AM 7.1896 9.0508
11/4/2021 6:30:00 AM 7.1916 9.654
11/4/2021 6:45:00 AM 7.1919 10.033
11/4/2021 7:00:00 AM 7.1953 9.7433
11/4/2021 7:15:00 AM 7.2025 9.3222
11/4/2021 7:30:00 AM 7.2122 9.2725
11/4/2021 7:45:00 AM 7.2189 9.0763
11/4/2021 8:00:00 AM 7.2247 8.9325
11/4/2021 8:15:00 AM 7.2295 8.7641
11/4/2021 8:30:00 AM 7.2315 9.1811
11/4/2021 8:45:00 AM 7.2282 9.7
11/4/2021 9:00:00 AM 7.2213 9.0377
11/4/2021 9:15:00 AM 7.2212 14.5165
11/4/2021 9:30:00 AM 7.2149 59.0393
11/4/2021 9:45:00 AM 7.2089 36.2583
11/4/2021 10:00:00 AM 7.2045 19.1567
11/4/2021 10:15:00 AM 7.2019 16.0965
11/4/2021 10:30:00 AM 7.1972 14.3309
11/4/2021 10:45:00 AM 7.1971 12.8328
11/4/2021 11:00:00 AM 7.1933 11.7435
11/4/2021 11:15:00 AM 7.191 11.1258
11/4/2021 11:30:00 AM 7.1864 10.7996
11/4/2021 11:45:00 AM 7.1834 10.8
11/4/2021 12:00:00 PM 7.1772 11.6203
11/4/2021 12:15:00 PM 7.173 12.4585
11/4/2021 12:30:00 PM 7.1686 11.1263
11/4/2021 12:45:00 PM 7.1665 11.6442
11/4/2021 1:00:00 PM 7.1612 12.8654
11/4/2021 1:15:00 PM 7.1589 11.9617
11/4/2021 1:30:00 PM 7.1561 12.6822
11/4/2021 1:45:00 PM 7.1505 10.0823
11/4/2021 2:00:00 PM 7.1492 9.2149
11/4/2021 2:15:00 PM 7.1489 8.4795
11/4/2021 2:30:00 PM 7.1492 8.2913
11/4/2021 2:45:00 PM 7.149 8.0574
11/4/2021 3:00:00 PM 7.1492 7.9773
11/4/2021 3:15:00 PM 7.1494 7.8135
11/4/2021 3:30:00 PM 7.1493 7.8083
11/4/2021 3:45:00 PM 7.1492 7.6824
11/4/2021 4:00:00 PM 7.1495 7.6756
11/4/2021 4:15:00 PM 7.1491 7.6588
11/4/2021 4:30:00 PM 7.1489 7.6601
11/4/2021 4:45:00 PM 7.1489 7.872
11/4/2021 5:00:00 PM 7.1488 7.7826
11/4/2021 5:15:00 PM 7.1493 7.9875
11/4/2021 5:30:00 PM 7.1488 8.1999
11/4/2021 5:45:00 PM 7.1484 8.3
11/4/2021 6:00:00 PM 7.1535 8.538
11/4/2021 6:15:00 PM 7.1536 8.5596
11/4/2021 6:30:00 PM 7.1536 9.6077
11/4/2021 6:45:00 PM 7.1575 8.5603
11/4/2021 7:00:00 PM 7.1587 8.5528
11/4/2021 7:15:00 PM 7.1586 8.8563
11/4/2021 7:30:00 PM 7.1586 9.9804
11/4/2021 7:45:00 PM 7.1588 9.5651
11/4/2021 8:00:00 PM 7.1604 9.16
11/4/2021 8:15:00 PM 7.1625 9.0038
11/4/2021 8:30:00 PM 7.1632 8.6716
11/4/2021 8:45:00 PM 7.1694 8.6
11/4/2021 9:00:00 PM 7.1682 10.6235
11/4/2021 9:15:00 PM 7.1751 11.9608
11/4/2021 9:30:00 PM 7.181 10.525
11/4/2021 9:45:00 PM 7.1867 9.8757
11/4/2021 10:00:00 PM 7.1915 9.5343
11/4/2021 10:15:00 PM 7.1951 9.0281
11/4/2021 10:30:00 PM 7.1979 8.8618
11/4/2021 10:45:00 PM 7.2018 8.7522
11/4/2021 11:00:00 PM 7.2057 8.7254
11/4/2021 11:15:00 PM 7.2098 8.8356
11/4/2021 11:30:00 PM 7.2141 8.7229
11/4/2021 11:45:00 PM 7.2142 8.7
11/5/2021 12:00:00 AM 7.2206 8.6571
11/5/2021 12:15:00 AM 7.2224 8.5313
11/5/2021 12:30:00 AM 7.2246 8.4613
11/5/2021 12:45:00 AM 7.2272 8.425
11/5/2021 1:00:00 AM 7.2317 9.1039
11/5/2021 1:15:00 AM 7.2354 9.067
11/5/2021 1:30:00 AM 7.2371 8.7184
11/5/2021 1:45:00 AM 7.2402 8.6267
11/5/2021 2:00:00 AM 7.2431 8.9909
11/5/2021 2:15:00 AM 7.2466 8.789
11/5/2021 2:30:00 AM 7.2512 8.7809
11/5/2021 2:45:00 AM 7.2548 9.4998
11/5/2021 3:00:00 AM 7.2602 9.3864
11/5/2021 3:15:00 AM 7.265 8.7911
11/5/2021 3:30:00 AM 7.2656 8.7462
11/5/2021 3:45:00 AM 7.2698 9.1418
11/5/2021 4:00:00 AM 7.2719 8.8439
11/5/2021 4:15:00 AM 7.2753 8.7949
11/5/2021 4:30:00 AM 7.2791 9.7204
11/5/2021 4:45:00 AM 7.2814 10.1499
11/5/2021 5:00:00 AM 7.2859 9.759
11/5/2021 5:15:00 AM 7.2897 9.1642
11/5/2021 5:30:00 AM 7.29 8.9692
11/5/2021 5:45:00 AM 7.2954 8.9
11/5/2021 6:00:00 AM 7.2894 9.105
11/5/2021 6:15:00 AM 7.2841 9.3971
11/5/2021 6:30:00 AM 7.2868 9.1919
11/5/2021 6:45:00 AM 7.2866 9.2772
11/5/2021 7:00:00 AM 7.2848 9.5543
11/5/2021 7:15:00 AM 7.2841 9.0361
11/5/2021 7:30:00 AM 7.285 8.669
11/5/2021 7:45:00 AM 7.2848 8.4865
11/5/2021 8:00:00 AM 7.2846 8.4091
11/5/2021 8:15:00 AM 7.2844 8.3548
11/5/2021 8:30:00 AM 7.2832 8.3409
11/5/2021 8:45:00 AM 7.2814 8.3
11/5/2021 9:00:00 AM 7.2798 8.288
11/5/2021 9:15:00 AM 7.2771 8.2381
11/5/2021 9:30:00 AM 7.2756 8.8137
11/5/2021 9:45:00 AM 7.2749 9.2543
11/5/2021 10:00:00 AM 7.272 8.7544
11/5/2021 10:15:00 AM 7.2697 8.4892
11/5/2021 10:30:00 AM 7.2659 8.4481
11/5/2021 10:45:00 AM 7.2632 8.3913
11/5/2021 11:00:00 AM 7.2589 8.3619
11/5/2021 11:15:00 AM 7.2561 8.2677
11/5/2021 11:30:00 AM 7.2523 8.33
11/5/2021 11:45:00 AM 7.2506 8.4
11/5/2021 12:00:00 PM 7.2464 8.3517
11/5/2021 12:15:00 PM 7.2431 8.3216
11/5/2021 12:30:00 PM 7.2394 8.2584
11/5/2021 12:45:00 PM 7.2342 8.1903
11/5/2021 1:00:00 PM 7.2323 8.0702
11/5/2021 1:15:00 PM 7.2278 8.0288
11/5/2021 1:30:00 PM 7.2229 8.0449
11/5/2021 1:45:00 PM 7.2192 8.0284
11/5/2021 2:00:00 PM 7.2171 8.0032
11/5/2021 2:15:00 PM 7.2158 7.9434
11/5/2021 2:30:00 PM 7.2128 7.9286
11/5/2021 2:45:00 PM 7.2122 7.8946
11/5/2021 3:00:00 PM 7.2105 7.8325
11/5/2021 3:15:00 PM 7.2076 7.7831
11/5/2021 3:30:00 PM 7.2073 7.7674
11/5/2021 3:45:00 PM 7.2072 7.7069
11/5/2021 4:00:00 PM 7.2114 7.6611
11/5/2021 4:15:00 PM 7.2132 7.5729
11/5/2021 4:30:00 PM 7.2126 7.5492
11/5/2021 4:45:00 PM 7.2139 7.5279
11/5/2021 5:00:00 PM 7.2148 7.4753
11/5/2021 5:15:00 PM 7.2126 7.4491
11/5/2021 5:30:00 PM 7.2147 7.4615
11/5/2021 5:45:00 PM 7.217 7.5
11/5/2021 6:00:00 PM 7.217 7.7427
11/5/2021 6:15:00 PM 7.2172 9.5394
11/5/2021 6:30:00 PM 7.2165 10.3237
11/5/2021 6:45:00 PM 7.2169 17.0018
11/5/2021 7:00:00 PM 7.2173 11.439
11/5/2021 7:15:00 PM 7.2167 8.1823
11/5/2021 7:30:00 PM 7.2175 8.1639
11/5/2021 7:45:00 PM 7.2193 8.5579
11/5/2021 8:00:00 PM 7.221 8.0606
11/5/2021 8:15:00 PM 7.2215 7.719
11/5/2021 8:30:00 PM 7.2214 7.5987
11/5/2021 8:45:00 PM 7.224 7.5
11/5/2021 9:00:00 PM 7.2198 10.6578
11/5/2021 9:15:00 PM 7.2231 13.4785
11/5/2021 9:30:00 PM 7.2259 11.5687
11/5/2021 9:45:00 PM 7.2269 10.3602
11/5/2021 10:00:00 PM 7.2271 9.7391
11/5/2021 10:15:00 PM 7.2301 9.3255
11/5/2021 10:30:00 PM 7.2319 8.7836
11/5/2021 10:45:00 PM 7.2334 8.5849
11/5/2021 11:00:00 PM 7.2364 8.4831
11/5/2021 11:15:00 PM 7.2375 8.5174
11/5/2021 11:30:00 PM 7.2389 8.3945
11/5/2021 11:45:00 PM 7.2394 8.3
11/6/2021 12:00:00 AM 7.2451 8.2542
11/6/2021 12:15:00 AM 7.2469 8.415
11/6/2021 12:30:00 AM 7.2505 8.3543
11/6/2021 12:45:00 AM 7.2524 8.3339
11/6/2021 1:00:00 AM 7.2552 8.1972
11/6/2021 1:15:00 AM 7.2567 8.0877
11/6/2021 1:30:00 AM 7.2602 8.088
11/6/2021 1:45:00 AM 7.2617 8.1931
11/6/2021 2:00:00 AM 7.266 8.0578
11/6/2021 2:15:00 AM 7.2662 7.9601
11/6/2021 2:30:00 AM 7.2693 8.2388
11/6/2021 2:45:00 AM 7.2674 8.2
11/6/2021 3:00:00 AM 7.2734 8.2552
11/6/2021 3:15:00 AM 7.277 8.1684
11/6/2021 3:30:00 AM 7.2807 8.4632
11/6/2021 3:45:00 AM 7.2844 8.5613
11/6/2021 4:00:00 AM 7.2857 8.0295
11/6/2021 4:15:00 AM 7.2893 8.263
11/6/2021 4:30:00 AM 7.2908 8.407
11/6/2021 4:45:00 AM 7.2944 8.4671
11/6/2021 5:00:00 AM 7.2953 8.2751
11/6/2021 5:15:00 AM 7.2991 8.2456
11/6/2021 5:30:00 AM 7.3029 8.0361
11/6/2021 5:45:00 AM 7.301 8.1
11/6/2021 6:00:00 AM 7.3101 8.5013
11/6/2021 6:15:00 AM 7.3139 8.2881
11/6/2021 6:30:00 AM 7.3188 8.224
11/6/2021 6:45:00 AM 7.3232 8.0557
11/6/2021 7:00:00 AM 7.3277 8.1682
11/6/2021 7:15:00 AM 7.3335 8.1169
11/6/2021 7:30:00 AM 7.3405 8.1555
11/6/2021 7:45:00 AM 7.352 7.9965
11/6/2021 8:00:00 AM 7.3618 7.8414
11/6/2021 8:15:00 AM 7.3686 7.659
11/6/2021 8:30:00 AM 7.3739 7.6131
11/6/2021 8:45:00 AM 7.378 7.6
11/6/2021 9:00:00 AM 7.3782 7.7154
11/6/2021 9:15:00 AM 7.3845 7.3815
11/6/2021 9:30:00 AM 7.3876 7.1164
11/6/2021 9:45:00 AM 7.3917 7.1327
11/6/2021 10:00:00 AM 7.3966 8.0105
11/6/2021 10:15:00 AM 7.3963 7.1914
11/6/2021 10:30:00 AM 7.3958 6.9256
11/6/2021 10:45:00 AM 7.3904 6.8548
11/6/2021 11:00:00 AM 7.4068 6.7246
11/6/2021 11:15:00 AM 7.4288 6.6214
11/6/2021 11:30:00 AM 7.4456 6.5082
11/6/2021 11:45:00 AM 7.4424 6.5
11/6/2021 12:00:00 PM 7.3937 6.4483
11/6/2021 12:15:00 PM 7.3397 6.5662
11/6/2021 12:30:00 PM 7.3239 6.5819
11/6/2021 12:45:00 PM 7.3119 6.5714
11/6/2021 1:00:00 PM 7.3035 6.5685
11/6/2021 1:15:00 PM 7.2946 6.4531
11/6/2021 1:30:00 PM 7.2872 6.4656
11/6/2021 1:45:00 PM 7.2813 6.3991
11/6/2021 2:00:00 PM 7.2762 6.3554
11/6/2021 2:15:00 PM 7.2711 6.3722
11/6/2021 2:30:00 PM 7.2667 6.3444
11/6/2021 2:45:00 PM 7.2624 6.4142
11/6/2021 3:00:00 PM 7.2615 6.2616
11/6/2021 3:15:00 PM 7.2573 6.7386
11/6/2021 3:30:00 PM 7.2568 6.9323
11/6/2021 3:45:00 PM 7.2571 7.1821
11/6/2021 4:00:00 PM 7.257 7.5146
11/6/2021 4:15:00 PM 7.2571 7.1341
11/6/2021 4:30:00 PM 7.2584 6.9813
11/6/2021 4:45:00 PM 7.2591 7.641
11/6/2021 5:00:00 PM 7.2609 7.9885
11/6/2021 5:15:00 PM 7.2608 7.2132
11/6/2021 5:30:00 PM 7.2597 8.6726
11/6/2021 5:45:00 PM 7.259 9
11/6/2021 6:00:00 PM 7.2573 7.2113
11/6/2021 6:15:00 PM 7.2566 7.9333
11/6/2021 6:30:00 PM 7.259 8.9031
11/6/2021 6:45:00 PM 7.2592 7.0758
11/6/2021 7:00:00 PM 7.2578 6.3988
11/6/2021 7:15:00 PM 7.2612 6.2007
11/6/2021 7:30:00 PM 7.2614 6.3834
11/6/2021 7:45:00 PM 7.2616 6.5618
11/6/2021 8:00:00 PM 7.2614 6.542
11/6/2021 8:15:00 PM 7.2614 6.6588
11/6/2021 8:30:00 PM 7.2614 6.822
11/6/2021 8:45:00 PM 7.2632 7.6
11/6/2021 9:00:00 PM 7.2607 8.0529
11/6/2021 9:15:00 PM 7.2613 8.2486
11/6/2021 9:30:00 PM 7.2613 7.3443
11/6/2021 9:45:00 PM 7.2611 7.1449
11/6/2021 10:00:00 PM 7.2621 7.0502
11/6/2021 10:15:00 PM 7.262 6.7928
11/6/2021 10:30:00 PM 7.2627 6.7981
11/6/2021 10:45:00 PM 7.2631 7.2982
11/6/2021 11:00:00 PM 7.2622 7.1721
11/6/2021 11:15:00 PM 7.2637 6.786
11/6/2021 11:30:00 PM 7.2616 7.0858
11/6/2021 11:45:00 PM 7.259 7.2
11/7/2021 12:00:00 AM 7.2618 7.8473
11/7/2021 12:15:00 AM 7.261 7.6962
11/7/2021 12:30:00 AM 7.2642 7.0273
11/7/2021 12:45:00 AM 7.2653 6.7777
11/7/2021 1:00:00 AM 7.2662 6.7399
11/7/2021 1:15:00 AM 7.2661 6.8517
11/7/2021 1:30:00 AM 7.2665 7.8386
11/7/2021 1:45:00 AM 7.2694 7.9116
11/7/2021 2:00:00 AM 7.2765 6.6559
11/7/2021 2:15:00 AM 7.2781 6.5284
11/7/2021 2:30:00 AM 7.2805 6.7874
11/7/2021 2:45:00 AM 7.2786 7
11/7/2021 3:00:00 AM 7.285 6.7656
11/7/2021 3:15:00 AM 7.2857 6.5838
11/7/2021 3:30:00 AM 7.2895 6.5672
11/7/2021 3:45:00 AM 7.2872 6.7551
11/7/2021 4:00:00 AM 7.2949 6.4127
11/7/2021 4:15:00 AM 7.297 6.3515
11/7/2021 4:30:00 AM 7.3008 6.5632
11/7/2021 4:45:00 AM 7.3031 6.277
11/7/2021 5:00:00 AM 7.3069 6.324
11/7/2021 5:15:00 AM 7.3097 6.1878
11/7/2021 5:30:00 AM 7.3119 6.1532
11/7/2021 5:45:00 AM 7.315 6.0999
11/7/2021 6:00:00 AM 7.3194 7.0861
11/7/2021 6:15:00 AM 7.3235 6.8734
11/7/2021 6:30:00 AM 7.3273 6.6774
11/7/2021 6:45:00 AM 7.3324 6.4987
11/7/2021 7:00:00 AM 7.3383 6.3323
11/7/2021 7:15:00 AM 7.3411 6.1678
11/7/2021 7:30:00 AM 7.3452 6.1129
11/7/2021 7:45:00 AM 7.3479 6.0361
11/7/2021 8:00:00 AM 7.3502 5.982
11/7/2021 8:15:00 AM 7.354 5.8807
11/7/2021 8:30:00 AM 7.3578 5.8537
11/7/2021 8:45:00 AM 7.3584 5.8
11/7/2021 9:00:00 AM 7.362 5.7309
11/7/2021 9:15:00 AM 7.3642 5.7677
11/7/2021 9:30:00 AM 7.3636 5.9767
11/7/2021 9:45:00 AM 7.3622 5.6701
11/7/2021 10:00:00 AM 7.3562 5.5998
11/7/2021 10:15:00 AM 7.3496 5.5732
11/7/2021 10:30:00 AM 7.3433 5.5491
11/7/2021 10:45:00 AM 7.3382 5.5237
11/7/2021 11:00:00 AM 7.3375 5.4456
11/7/2021 11:15:00 AM 7.3304 5.4748
11/7/2021 11:30:00 AM 7.3226 5.4481
11/7/2021 11:45:00 AM 7.3164 5.5
11/7/2021 12:00:00 PM 7.308 5.4399
11/7/2021 12:15:00 PM 7.3031 5.4356
11/7/2021 12:30:00 PM 7.2963 5.4942
11/7/2021 12:45:00 PM 7.2902 5.7425
11/7/2021 1:00:00 PM 7.2861 5.7675
11/7/2021 1:15:00 PM 7.2807 5.5803
11/7/2021 1:30:00 PM 7.2785 5.4386
11/7/2021 1:45:00 PM 7.2763 5.3997
11/7/2021 2:00:00 PM 7.2739 5.3557
11/7/2021 2:15:00 PM 7.2713 5.3517
11/7/2021 2:30:00 PM 7.2716 5.3571
11/7/2021 2:45:00 PM 7.2709 5.3226
11/7/2021 3:00:00 PM 7.2714 5.2876
11/7/2021 3:15:00 PM 7.2708 5.2412
11/7/2021 3:30:00 PM 7.2713 5.2843
11/7/2021 3:45:00 PM 7.2712 5.2866
11/7/2021 4:00:00 PM 7.271 5.2522
11/7/2021 4:15:00 PM 7.2682 5.2145
11/7/2021 4:30:00 PM 7.2687 5.2236
11/7/2021 4:45:00 PM 7.2712 5.198
11/7/2021 5:00:00 PM 7.2679 5.4551
11/7/2021 5:15:00 PM 7.2663 7.377
11/7/2021 5:30:00 PM 7.2667 6.6861
11/7/2021 5:45:00 PM 7.2674 6.3
11/7/2021 6:00:00 PM 7.2682 5.7317
11/7/2021 6:15:00 PM 7.2662 5.5362
11/7/2021 6:30:00 PM 7.2691 5.7621
11/7/2021 6:45:00 PM 7.2712 5.8305
11/7/2021 7:00:00 PM 7.2705 5.8626
11/7/2021 7:15:00 PM 7.2709 7.4156
11/7/2021 7:30:00 PM 7.2708 6.5648
11/7/2021 7:45:00 PM 7.2711 6.3196
11/7/2021 8:00:00 PM 7.2718 6.1872
11/7/2021 8:15:00 PM 7.271 6.0037
11/7/2021 8:30:00 PM 7.2729 5.8594
11/7/2021 8:45:00 PM 7.273 5.9001
11/7/2021 9:00:00 PM 7.2755 5.9105
11/7/2021 9:15:00 PM 7.275 5.9486
11/7/2021 9:30:00 PM 7.2732 5.8061
11/7/2021 9:45:00 PM 7.2809 5.8826
11/7/2021 10:00:00 PM 7.3074 5.7325
11/7/2021 10:15:00 PM 7.336 5.6269
11/7/2021 10:30:00 PM 7.3551 5.5594
11/7/2021 10:45:00 PM 7.3688 5.5139
11/7/2021 11:00:00 PM 7.3754 5.4792
11/7/2021 11:15:00 PM 7.3691 5.4191
11/7/2021 11:30:00 PM 7.3733 5.3699
11/7/2021 11:45:00 PM 7.3766 5.4
11/8/2021 12:00:00 AM 7.3772 5.4185
11/8/2021 12:15:00 AM 7.3707 5.4173
11/8/2021 12:30:00 AM 7.3622 5.3665
11/8/2021 12:45:00 AM 7.3625 5.3471
11/8/2021 1:00:00 AM 7.3602 5.3278
11/8/2021 1:15:00 AM 7.357 5.2922
11/8/2021 1:30:00 AM 7.3442 5.3431
11/8/2021 1:45:00 AM 7.3536 5.4881
11/8/2021 2:00:00 AM 7.349 5.6688
11/8/2021 2:15:00 AM 7.3439 5.4786
11/8/2021 2:30:00 AM 7.3484 5.4686
11/8/2021 2:45:00 AM 7.3458 5.4998
11/8/2021 3:00:00 AM 7.3455 5.4547
11/8/2021 3:15:00 AM 7.347 5.5028
11/8/2021 3:30:00 AM 7.3523 5.5465
11/8/2021 3:45:00 AM 7.3535 6.0611
11/8/2021 4:00:00 AM 7.3377 6.1657
11/8/2021 4:15:00 AM 7.2942 5.8291
11/8/2021 4:30:00 AM 7.2854 5.8661
11/8/2021 4:45:00 AM 7.2847 5.633
11/8/2021 5:00:00 AM 7.284 5.4648
11/8/2021 5:15:00 AM 7.2849 5.3843
11/8/2021 5:30:00 AM 7.2845 5.3753
11/8/2021 5:45:00 AM 7.2828 5.4
11/8/2021 6:00:00 AM 7.286 5.4849
11/8/2021 6:15:00 AM 7.2899 5.4357
11/8/2021 6:30:00 AM 7.2912 5.4807
11/8/2021 6:45:00 AM 7.2934 5.5026
11/8/2021 7:00:00 AM 7.2946 5.4512
11/8/2021 7:15:00 AM 7.2986 5.3516
11/8/2021 7:30:00 AM 7.2999 5.2665
11/8/2021 7:45:00 AM 7.304 5.2455
11/8/2021 8:00:00 AM 7.305 5.1547
11/8/2021 8:15:00 AM 7.3087 5.0895
11/8/2021 8:30:00 AM 7.3095 5.0514
11/8/2021 8:45:00 AM 7.3108 5
11/8/2021 9:00:00 AM 7.3141 5.1122
11/8/2021 9:15:00 AM 7.314 5.04
11/8/2021 9:30:00 AM 7.3136 4.9714
11/8/2021 9:45:00 AM 7.3126 4.9484
11/8/2021 10:00:00 AM 7.3089 4.9648
11/8/2021 10:15:00 AM 7.3057 4.961
11/8/2021 10:30:00 AM 7.3011 5.0061
11/8/2021 10:45:00 AM 7.2978 5.0309
11/8/2021 11:00:00 AM 7.2945 4.9614
11/8/2021 11:15:00 AM 7.2932 4.939
11/8/2021 11:30:00 AM 7.2891 5.1767
11/8/2021 11:45:00 AM 7.2842 5.7999
11/8/2021 12:00:00 PM 7.28 5.9106
11/8/2021 12:15:00 PM 7.276 5.4922
11/8/2021 12:30:00 PM 7.273 6.2611
11/8/2021 12:45:00 PM 7.271 6.3371
11/8/2021 1:00:00 PM 7.2695 5.7045
11/8/2021 1:15:00 PM 7.2665 5.288
11/8/2021 1:30:00 PM 7.2662 5.1009
11/8/2021 1:45:00 PM 7.2626 5.0054
11/8/2021 2:00:00 PM 7.2616 4.984
11/8/2021 2:15:00 PM 7.2616 4.9066
11/8/2021 2:30:00 PM 7.2613 4.8889
11/8/2021 2:45:00 PM 7.2614 4.8578
11/8/2021 3:00:00 PM 7.2613 5.1353
11/8/2021 3:15:00 PM 7.2615 5.3814
11/8/2021 3:30:00 PM 7.2609 5.3276
11/8/2021 3:45:00 PM 7.2613 6.21
11/8/2021 4:00:00 PM 7.2608 5.9759
11/8/2021 4:15:00 PM 7.2614 5.7955
11/8/2021 4:30:00 PM 7.2614 6.1813
11/8/2021 4:45:00 PM 7.261 6.0873
11/8/2021 5:00:00 PM 7.2608 6.0042
11/8/2021 5:15:00 PM 7.261 5.5103
11/8/2021 5:30:00 PM 7.2611 6.185
11/8/2021 5:45:00 PM 7.2632 6.1
11/8/2021 6:00:00 PM 7.2613 5.1821
11/8/2021 6:15:00 PM 7.261 4.9461
11/8/2021 6:30:00 PM 7.2609 4.9525
11/8/2021 6:45:00 PM 7.2618 5.1056
11/8/2021 7:00:00 PM 7.2615 5.1268
11/8/2021 7:15:00 PM 7.2628 6.678
11/8/2021 7:30:00 PM 7.2601 6.6708
11/8/2021 7:45:00 PM 7.2611 5.946
11/8/2021 8:00:00 PM 7.2612 5.5741
11/8/2021 8:15:00 PM 7.2616 5.3914
11/8/2021 8:30:00 PM 7.2613 5.3177
11/8/2021 8:45:00 PM 7.2688 5.2
11/8/2021 9:00:00 PM 7.2613 5.2165
11/8/2021 9:15:00 PM 7.2611 5.2279
11/8/2021 9:30:00 PM 7.2609 5.1521
11/8/2021 9:45:00 PM 7.2611 5.1364
11/8/2021 10:00:00 PM 7.2614 5.0854
11/8/2021 10:15:00 PM 7.2582 5.0526
11/8/2021 10:30:00 PM 7.2566 5.08
11/8/2021 10:45:00 PM 7.2568 5.0525
11/8/2021 11:00:00 PM 7.2565 5.0836
11/8/2021 11:15:00 PM 7.253 5.4654
11/8/2021 11:30:00 PM 7.2515 5.3967
11/8/2021 11:45:00 PM 7.2492 5.6
11/9/2021 12:00:00 AM 7.2499 5.3567
11/9/2021 12:15:00 AM 7.2479 5.2144
11/9/2021 12:30:00 AM 7.2478 5.1074
11/9/2021 12:45:00 AM 7.247 5.2098
11/9/2021 1:00:00 AM 7.2464 5.415
11/9/2021 1:15:00 AM 7.2475 5.4314
11/9/2021 1:30:00 AM 7.2471 5.2586
11/9/2021 1:45:00 AM 7.2471 5.1814
11/9/2021 2:00:00 AM 7.2471 5.1496
11/9/2021 2:15:00 AM 7.2472 5.0978
11/9/2021 2:30:00 AM 7.2471 5.0651
11/9/2021 2:45:00 AM 7.2468 5.0857
11/9/2021 3:00:00 AM 7.2472 5.1587
11/9/2021 3:15:00 AM 7.247 5.2327
11/9/2021 3:30:00 AM 7.2468 5.0871
11/9/2021 3:45:00 AM 7.2471 5.1619
11/9/2021 4:00:00 AM 7.2462 5.5697
11/9/2021 4:15:00 AM 7.247 5.5042
11/9/2021 4:30:00 AM 7.2468 5.4209
11/9/2021 4:45:00 AM 7.2465 5.4232
11/9/2021 5:00:00 AM 7.2469 5.2596
11/9/2021 5:15:00 AM 7.2475 5.1936
11/9/2021 5:30:00 AM 7.2474 5.4313
11/9/2021 5:45:00 AM 7.2464 5.4
11/9/2021 6:00:00 AM 7.2497 5.2152
11/9/2021 6:15:00 AM 7.2513 5.2732
11/9/2021 6:30:00 AM 7.2512 5.2032
11/9/2021 6:45:00 AM 7.252 5.2159
11/9/2021 7:00:00 AM 7.2531 5.1108
11/9/2021 7:15:00 AM 7.2562 5.0481
11/9/2021 7:30:00 AM 7.256 5.0726
11/9/2021 7:45:00 AM 7.2566 7.621
11/9/2021 8:00:00 AM 7.2569 7.5186
11/9/2021 8:15:00 AM 7.2569 7.4577
11/9/2021 8:30:00 AM 7.2567 6.4296
11/9/2021 8:45:00 AM 7.2567 5.9619
11/9/2021 9:00:00 AM 7.2572 6.3972
11/9/2021 9:15:00 AM 7.257 6.3479
11/9/2021 9:30:00 AM 7.2562 7.0632
11/9/2021 9:45:00 AM 7.257 7.0059
11/9/2021 10:00:00 AM 7.2571 5.883
11/9/2021 10:15:00 AM 7.2529 5.4087
11/9/2021 10:30:00 AM 7.2479 5.2631
11/9/2021 10:45:00 AM 7.2475 5.1712
11/9/2021 11:00:00 AM 7.2476 5.0557
11/9/2021 11:15:00 AM 7.2449 5.8523
11/9/2021 11:30:00 AM 7.2421 6.3333
11/9/2021 11:45:00 AM 7.2436 6.3
11/9/2021 12:00:00 PM 7.2428 6.5314
11/9/2021 12:15:00 PM 7.2399 6.096
11/9/2021 12:30:00 PM 7.237 5.6121
11/9/2021 12:45:00 PM 7.2378 5.1979
11/9/2021 1:00:00 PM 7.2365 5.1716
11/9/2021 1:15:00 PM 7.2357 5.1114
11/9/2021 1:30:00 PM 7.2343 5.0248
11/9/2021 1:45:00 PM 7.2363 4.9992
11/9/2021 2:00:00 PM 7.2335 4.8965
11/9/2021 2:15:00 PM 7.2324 4.846
11/9/2021 2:30:00 PM 7.2326 4.8268
11/9/2021 2:45:00 PM 7.2325 4.7594
11/9/2021 3:00:00 PM 7.2325 4.7463
11/9/2021 3:15:00 PM 7.237 4.7423
11/9/2021 3:30:00 PM 7.2372 4.6863
11/9/2021 3:45:00 PM 7.2376 4.6414
11/9/2021 4:00:00 PM 7.2381 4.6592
11/9/2021 4:15:00 PM 7.2378 4.6426
11/9/2021 4:30:00 PM 7.2407 4.6122
11/9/2021 4:45:00 PM 7.2423 4.5631
11/9/2021 5:00:00 PM 7.2418 4.7196
11/9/2021 5:15:00 PM 7.242 5.8462
11/9/2021 5:30:00 PM 7.2419 5.6028
11/9/2021 5:45:00 PM 7.2436 5.1
11/9/2021 6:00:00 PM 7.242 4.7048
11/9/2021 6:15:00 PM 7.2423 4.6447
11/9/2021 6:30:00 PM 7.2425 4.9562
11/9/2021 6:45:00 PM 7.2422 5.0878
11/9/2021 7:00:00 PM 7.2419 4.9038
11/9/2021 7:15:00 PM 7.2421 4.7842
11/9/2021 7:30:00 PM 7.2415 4.8752
11/9/2021 7:45:00 PM 7.2412 5.0901
11/9/2021 8:00:00 PM 7.2414 5.0177
11/9/2021 8:15:00 PM 7.2415 6.4302
11/9/2021 8:30:00 PM 7.2383 5.8908
11/9/2021 8:45:00 PM 7.2394 5.6
11/9/2021 9:00:00 PM 7.2384 5.4391
11/9/2021 9:15:00 PM 7.2371 5.3341
11/9/2021 9:30:00 PM 7.237 5.1529
11/9/2021 9:45:00 PM 7.237 5.1134
11/9/2021 10:00:00 PM 7.2352 5.1384
11/9/2021 10:15:00 PM 7.2321 5.1086
11/9/2021 10:30:00 PM 7.2319 5.1465
11/9/2021 10:45:00 PM 7.2316 5.1066
11/9/2021 11:00:00 PM 7.2287 5.2172
11/9/2021 11:15:00 PM 7.2276 5.1986
11/9/2021 11:30:00 PM 7.2262 5.0762
11/9/2021 11:45:00 PM 7.224 5.1
11/10/2021 12:00:00 AM 7.2216 5.0524
11/10/2021 12:15:00 AM 7.2182 5.0602
11/10/2021 12:30:00 AM 7.2176 5.0526
11/10/2021 12:45:00 AM 7.217 5.0952
11/10/2021 1:00:00 AM 7.2131 5.1777
11/10/2021 1:15:00 AM 7.2121 5.1456
11/10/2021 1:30:00 AM 7.2123 5.1983
11/10/2021 1:45:00 AM 7.2093 5.1884
11/10/2021 2:00:00 AM 7.2084 5.2614
11/10/2021 2:15:00 AM 7.208 5.2782
11/10/2021 2:30:00 AM 7.2079 5.3127
11/10/2021 2:45:00 AM 7.2072 5.4996
11/10/2021 3:00:00 AM 7.2035 5.2347
11/10/2021 3:15:00 AM 7.2032 5.3011
11/10/2021 3:30:00 AM 7.2029 5.5978
11/10/2021 3:45:00 AM 7.2026 5.2965
11/10/2021 4:00:00 AM 7.2028 5.4193
11/10/2021 4:15:00 AM 7.2022 5.4107
11/10/2021 4:30:00 AM 7.2015 5.2621
11/10/2021 4:45:00 AM 7.2013 5.2403
11/10/2021 5:00:00 AM 7.2017 5.4651
11/10/2021 5:15:00 AM 7.201 5.2895
11/10/2021 5:30:00 AM 7.2017 5.1741
11/10/2021 5:45:00 AM 7.1988 5.1001
11/10/2021 6:00:00 AM 7.1982 5.3434
11/10/2021 6:15:00 AM 7.1984 5.2378
11/10/2021 6:30:00 AM 7.1982 5.3292
11/10/2021 6:45:00 AM 7.1979 5.3431
11/10/2021 7:00:00 AM 7.1975 5.2766
11/10/2021 7:15:00 AM 7.198 5.1665
11/10/2021 7:30:00 AM 7.198 5.7334
11/10/2021 7:45:00 AM 7.1978 6.0162
11/10/2021 8:00:00 AM 7.198 6.0396
11/10/2021 8:15:00 AM 7.198 5.7136
11/10/2021 8:30:00 AM 7.1981 5.5041
11/10/2021 8:45:00 AM 7.2002 5.4
11/10/2021 9:00:00 AM 7.1975 5.5828
11/10/2021 9:15:00 AM 7.1973 5.769
11/10/2021 9:30:00 AM 7.1976 6.7522
11/10/2021 9:45:00 AM 7.1983 7.0869
11/10/2021 10:00:00 AM 7.1977 6.5428
11/10/2021 10:15:00 AM 7.1976 6.4975
11/10/2021 10:30:00 AM 7.1978 6.7461
11/10/2021 10:45:00 AM 7.2005 6.5024
11/10/2021 11:00:00 AM 7.2025 6.5259
11/10/2021 11:15:00 AM 7.2025 6.2825
11/10/2021 11:30:00 AM 7.2025 6.1635
11/10/2021 11:45:00 AM 7.203 6.1
11/10/2021 12:00:00 PM 7.2028 6.2745
11/10/2021 12:15:00 PM 7.2033 6.2694
11/10/2021 12:30:00 PM 7.2037 6.0779
11/10/2021 12:45:00 PM 7.2051 5.8765
11/10/2021 1:00:00 PM 7.2054 5.7825
11/10/2021 1:15:00 PM 7.2076 5.7512
11/10/2021 1:30:00 PM 7.2071 5.8735
11/10/2021 1:45:00 PM 7.2082 6.4861
11/10/2021 2:00:00 PM 7.2085 7.2822
11/10/2021 2:15:00 PM 7.2079 6.5666
11/10/2021 2:30:00 PM 7.2106 6.0001
11/10/2021 2:45:00 PM 7.2121 5.8401
11/10/2021 3:00:00 PM 7.213 6.3161
11/10/2021 3:15:00 PM 7.2144 6.0258
11/10/2021 3:30:00 PM 7.2172 6.4144
11/10/2021 3:45:00 PM 7.2168 6.1102
11/10/2021 4:00:00 PM 7.2181 5.6319
11/10/2021 4:15:00 PM 7.2194 5.4704
11/10/2021 4:30:00 PM 7.2213 5.614
11/10/2021 4:45:00 PM 7.2213 6.831
11/10/2021 5:00:00 PM 7.2218 7.1775
11/10/2021 5:15:00 PM 7.2219 6.8924
11/10/2021 5:30:00 PM 7.2234 5.6441
11/10/2021 5:45:00 PM 7.2282 5.4
11/10/2021 6:00:00 PM 7.2272 5.2518
11/10/2021 6:15:00 PM 7.2283 5.3201
11/10/2021 6:30:00 PM 7.2292 5.406
11/10/2021 6:45:00 PM 7.2313 6.1977
11/10/2021 7:00:00 PM 7.2316 7.682
11/10/2021 7:15:00 PM 7.2316 7.3744
11/10/2021 7:30:00 PM 7.2342 6.4617
11/10/2021 7:45:00 PM 7.2367 6.0511
11/10/2021 8:00:00 PM 7.2365 7.0712
11/10/2021 8:15:00 PM 7.2366 7.0998
11/10/2021 8:30:00 PM 7.2385 6.3049
11/10/2021 8:45:00 PM 7.2436 6.1
11/10/2021 9:00:00 PM 7.2417 6.0026
11/10/2021 9:15:00 PM 7.2416 6.1101
11/10/2021 9:30:00 PM 7.2414 5.8555
11/10/2021 9:45:00 PM 7.2423 5.7274
11/10/2021 10:00:00 PM 7.2425 5.6512
11/10/2021 10:15:00 PM 7.242 5.6506
11/10/2021 10:30:00 PM 7.2414 5.6544
11/10/2021 10:45:00 PM 7.242 5.646
11/10/2021 11:00:00 PM 7.2401 5.7019
11/10/2021 11:15:00 PM 7.2374 5.7053
11/10/2021 11:30:00 PM 7.2372 5.5673
11/10/2021 11:45:00 PM 7.2394 5.6
11/11/2021 12:00:00 AM 7.233 5.5294
11/11/2021 12:15:00 AM 7.2324 5.3678
11/11/2021 12:30:00 AM 7.2315 5.2893
11/11/2021 12:45:00 AM 7.2296 5.2284
11/11/2021 1:00:00 AM 7.2279 5.59
11/11/2021 1:15:00 AM 7.2272 5.8925
11/11/2021 1:30:00 AM 7.2267 6.6108
11/11/2021 1:45:00 AM 7.2269 6.7803
11/11/2021 2:00:00 AM 7.2245 6.0405
11/11/2021 2:15:00 AM 7.2234 5.7573
11/11/2021 2:30:00 AM 7.222 5.7173
11/11/2021 2:45:00 AM 7.2226 5.5
11/11/2021 3:00:00 AM 7.222 5.5961
11/11/2021 3:15:00 AM 7.2223 5.5528
11/11/2021 3:30:00 AM 7.2223 5.445
11/11/2021 3:45:00 AM 7.2217 5.4222
11/11/2021 4:00:00 AM 7.2216 5.5488
11/11/2021 4:15:00 AM 7.2213 5.2828
11/11/2021 4:30:00 AM 7.2191 5.1986
11/11/2021 4:45:00 AM 7.2192 5.1451
11/11/2021 5:00:00 AM 7.2214 5.1638
11/11/2021 5:15:00 AM 7.2224 5.2244
11/11/2021 5:30:00 AM 7.2226 5.2299
11/11/2021 5:45:00 AM 7.224 5.2
11/11/2021 6:00:00 AM 7.2226 5.1836
11/11/2021 6:15:00 AM 7.2238 5.1572
11/11/2021 6:30:00 AM 7.2266 5.329
11/11/2021 6:45:00 AM 7.2247 5.3165
11/11/2021 7:00:00 AM 7.2227 5.2384
11/11/2021 7:15:00 AM 7.2237 5.1473
11/11/2021 7:30:00 AM 7.2228 5.851
11/11/2021 7:45:00 AM 7.2257 5.6485
11/11/2021 8:00:00 AM 7.2263 5.2892
11/11/2021 8:15:00 AM 7.2264 5.1402
11/11/2021 8:30:00 AM 7.2264 5.1205
11/11/2021 8:45:00 AM 7.2198 5
11/11/2021 9:00:00 AM 7.2236 5.0581
11/11/2021 9:15:00 AM 7.224 5.7734
11/11/2021 9:30:00 AM 7.2246 6.3872
11/11/2021 9:45:00 AM 7.2235 5.9728
11/11/2021 10:00:00 AM 7.2228 6.0148
11/11/2021 10:15:00 AM 7.2242 5.8475
11/11/2021 10:30:00 AM 7.2266 5.9602
11/11/2021 10:45:00 AM 7.2264 5.8357
11/11/2021 11:00:00 AM 7.2268 5.5986
11/11/2021 11:15:00 AM 7.2275 5.911
11/11/2021 11:30:00 AM 7.2275 6.7802
11/11/2021 11:45:00 AM 7.224 7.1
11/11/2021 12:00:00 PM 7.2241 6.8812
11/11/2021 12:15:00 PM 7.2225 6.7026
11/11/2021 12:30:00 PM 7.2224 6.225
11/11/2021 12:45:00 PM 7.2219 5.7083
11/11/2021 1:00:00 PM 7.2224 6.3837
11/11/2021 1:15:00 PM 7.2218 5.9415
11/11/2021 1:30:00 PM 7.2219 6.2272
11/11/2021 1:45:00 PM 7.2224 6.5194
11/11/2021 2:00:00 PM 7.2221 5.9605
11/11/2021 2:15:00 PM 7.223 5.6475
11/11/2021 2:30:00 PM 7.2261 6.0308
11/11/2021 2:45:00 PM 7.2273 5.955
11/11/2021 3:00:00 PM 7.2275 6.5276
11/11/2021 3:15:00 PM 7.2286 6.5585
11/11/2021 3:30:00 PM 7.2311 6.4038
11/11/2021 3:45:00 PM 7.2319 5.9918
11/11/2021 4:00:00 PM 7.2322 5.7603
11/11/2021 4:15:00 PM 7.2362 5.6569
11/11/2021 4:30:00 PM 7.2373 5.6598
11/11/2021 4:45:00 PM 7.2379 5.5705
11/11/2021 5:00:00 PM 7.2403 5.54
11/11/2021 5:15:00 PM 7.2422 5.5596
11/11/2021 5:30:00 PM 7.2421 5.5452
11/11/2021 5:45:00 PM 7.2422 5.6
11/11/2021 6:00:00 PM 7.2457 5.557
11/11/2021 6:15:00 PM 7.2472 5.5634
11/11/2021 6:30:00 PM 7.2471 5.6473
11/11/2021 6:45:00 PM 7.2474 5.7964
11/11/2021 7:00:00 PM 7.2472 5.7805
11/11/2021 7:15:00 PM 7.2472 5.6626
11/11/2021 7:30:00 PM 7.2474 5.637
11/11/2021 7:45:00 PM 7.247 7.1789
11/11/2021 8:00:00 PM 7.2473 7.3656
11/11/2021 8:15:00 PM 7.2508 6.839
11/11/2021 8:30:00 PM 7.2516 6.8045
11/11/2021 8:45:00 PM 7.2506 6.7
11/11/2021 9:00:00 PM 7.2515 7.0075
11/11/2021 9:15:00 PM 7.2513 7.0192
11/11/2021 9:30:00 PM 7.2508 7.3871
11/11/2021 9:45:00 PM 7.2495 7.4754
11/11/2021 10:00:00 PM 7.2476 7.7179
11/11/2021 10:15:00 PM 7.2471 8.2284
11/11/2021 10:30:00 PM 7.2468 8.1582
11/11/2021 10:45:00 PM 7.2428 8.1334
11/11/2021 11:00:00 PM 7.2419 8.4149
11/11/2021 11:15:00 PM 7.2416 8.1431
11/11/2021 11:30:00 PM 7.2373 8.3165
11/11/2021 11:45:00 PM 7.2338 8.5
11/12/2021 12:00:00 AM 7.2332 8.2508
11/12/2021 12:15:00 AM 7.2315 8.8949
11/12/2021 12:30:00 AM 7.2279 8.6444
11/12/2021 12:45:00 AM 7.2267 8.4015
11/12/2021 1:00:00 AM 7.2244 8.5442
11/12/2021 1:15:00 AM 7.2222 8.0244
11/12/2021 1:30:00 AM 7.2219 7.923
11/12/2021 1:45:00 AM 7.2198 8.0145
11/12/2021 2:00:00 AM 7.2179 7.9532
11/12/2021 2:15:00 AM 7.2174 7.8736
11/12/2021 2:30:00 AM 7.2156 7.6149
11/12/2021 2:45:00 AM 7.2142 7.5999
11/12/2021 3:00:00 AM 7.2128 7.589
11/12/2021 3:15:00 AM 7.2121 7.4896
11/12/2021 3:30:00 AM 7.2123 7.5636
11/12/2021 3:45:00 AM 7.2124 7.5315
11/12/2021 4:00:00 AM 7.2102 7.6372
11/12/2021 4:15:00 AM 7.2121 7.7304
11/12/2021 4:30:00 AM 7.2119 8.8114
11/12/2021 4:45:00 AM 7.2122 10.3902
11/12/2021 5:00:00 AM 7.2131 7.6486
11/12/2021 5:15:00 AM 7.2119 7.2507
11/12/2021 5:30:00 AM 7.2124 7.0366
11/12/2021 5:45:00 AM 7.21 7
11/12/2021 6:00:00 AM 7.2125 7.5749
11/12/2021 6:15:00 AM 7.2126 8.0469
11/12/2021 6:30:00 AM 7.2119 8.6499
11/12/2021 6:45:00 AM 7.2091 9.3647
11/12/2021 7:00:00 AM 7.2081 14.0043
11/12/2021 7:15:00 AM 7.2035 40.8518
11/12/2021 7:30:00 AM 7.2026 21.8541
11/12/2021 7:45:00 AM 7.2027 14.9594
11/12/2021 8:00:00 AM 7.1996 20.0552
11/12/2021 8:15:00 AM 7.198 24.2917
11/12/2021 8:30:00 AM 7.197 70.4598
11/12/2021 8:45:00 AM 7.1946 190.4989
11/12/2021 9:00:00 AM 7.1819 674.9802
11/12/2021 9:15:00 AM 7.1738 879.376
11/12/2021 9:30:00 AM 7.1654 960.6479
11/12/2021 9:45:00 AM 7.1566 960.6512
11/12/2021 10:00:00 AM 7.143 960.6353
11/12/2021 10:15:00 AM 7.128 960.6454
11/12/2021 10:30:00 AM 7.1146 960.6311
11/12/2021 10:45:00 AM 7.1019 960.637
11/12/2021 11:00:00 AM 7.0868 822.5401
11/12/2021 11:15:00 AM 7.0732 646.6147
11/12/2021 11:30:00 AM 7.065 598.6175
11/12/2021 11:45:00 AM 7.063 579.8002
11/12/2021 12:00:00 PM 7.0466 481.7427
11/12/2021 12:15:00 PM 7.0429 418.1626
11/12/2021 12:30:00 PM 7.0425 346.1616
11/12/2021 12:45:00 PM 7.0432 288.7144
11/12/2021 1:00:00 PM 7.0467 243.4501
11/12/2021 1:15:00 PM 7.0477 207.3424
11/12/2021 1:30:00 PM 7.0507 176.8512
11/12/2021 1:45:00 PM 7.0531 151.0554
11/12/2021 2:00:00 PM 7.057 132.8481
11/12/2021 2:15:00 PM 7.0598 119.6327
11/12/2021 2:30:00 PM 7.0638 105.6235
11/12/2021 2:45:00 PM 7.0671 101.1024
11/12/2021 3:00:00 PM 7.0699 104.9556
11/12/2021 3:15:00 PM 7.0684 117.5062
11/12/2021 3:30:00 PM 7.0649 131.212
11/12/2021 3:45:00 PM 7.0593 142.7779
11/12/2021 4:00:00 PM 7.0507 150.7714
11/12/2021 4:15:00 PM 7.0416 153.3945
11/12/2021 4:30:00 PM 7.0328 152.1138
11/12/2021 4:45:00 PM 7.0223 147.8588
11/12/2021 5:00:00 PM 7.0126 141.765
11/12/2021 5:15:00 PM 7.0048 132.4285
11/12/2021 5:30:00 PM 6.9973 122.7735
11/12/2021 5:45:00 PM 6.993 118.0001
11/12/2021 6:00:00 PM 6.9873 106.4822
11/12/2021 6:15:00 PM 6.9846 99.9479
11/12/2021 6:30:00 PM 6.9801 101.8884
11/12/2021 6:45:00 PM 6.979 103.2495
11/12/2021 7:00:00 PM 6.9765 85.844
11/12/2021 7:15:00 PM 6.9743 80.4221
11/12/2021 7:30:00 PM 6.9702 75.6143
11/12/2021 7:45:00 PM 6.9659 71.9311
11/12/2021 8:00:00 PM 6.9612 67.9482
11/12/2021 8:15:00 PM 6.9564 64.8968
11/12/2021 8:30:00 PM 6.9527 61.6914
11/12/2021 8:45:00 PM 6.951 60.1
11/12/2021 9:00:00 PM 6.9472 56.2954
11/12/2021 9:15:00 PM 6.9473 53.4084
11/12/2021 9:30:00 PM 6.9472 51.1797
11/12/2021 9:45:00 PM 6.9468 48.3573
11/12/2021 10:00:00 PM 6.9472 45.9164
11/12/2021 10:15:00 PM 6.9477 43.9288
11/12/2021 10:30:00 PM 6.9512 41.6825
11/12/2021 10:45:00 PM 6.9521 40.3007
11/12/2021 11:00:00 PM 6.9553 38.9726
11/12/2021 11:15:00 PM 6.9571 38.2717
11/12/2021 11:30:00 PM 6.9613 37.106
11/12/2021 11:45:00 PM 6.9608 36.6
11/13/2021 12:00:00 AM 6.9685 35.1961
11/13/2021 12:15:00 AM 6.9712 34.3231
11/13/2021 12:30:00 AM 6.9751 33.4791
11/13/2021 12:45:00 AM 6.9767 33.3591
11/13/2021 1:00:00 AM 6.9804 33.5652
11/13/2021 1:15:00 AM 6.9808 34.1169
11/13/2021 1:30:00 AM 6.9803 34.7551
11/13/2021 1:45:00 AM 6.981 35.4981
11/13/2021 2:00:00 AM 6.9791 36.2902
11/13/2021 2:15:00 AM 6.9758 37.1255
11/13/2021 2:30:00 AM 6.9764 37.4095
11/13/2021 2:45:00 AM 6.9748 37.4
11/13/2021 3:00:00 AM 6.9678 36.9752
11/13/2021 3:15:00 AM 6.9687 36.4175
11/13/2021 3:30:00 AM 6.9663 35.3554
11/13/2021 3:45:00 AM 6.965 34.9366
11/13/2021 4:00:00 AM 6.9619 35.1468
11/13/2021 4:15:00 AM 6.9622 33.932
11/13/2021 4:30:00 AM 6.9608 34.7141
11/13/2021 4:45:00 AM 6.9605 34.1146
11/13/2021 5:00:00 AM 6.9613 33.1348
11/13/2021 5:15:00 AM 6.9618 32.5447
11/13/2021 5:30:00 AM 6.9614 31.45
11/13/2021 5:45:00 AM 6.9594 30.9999
11/13/2021 6:00:00 AM 6.9617 30.5408
11/13/2021 6:15:00 AM 6.9639 29.788
11/13/2021 6:30:00 AM 6.966 29.331
11/13/2021 6:45:00 AM 6.9663 29.3001
11/13/2021 7:00:00 AM 6.9666 29.0773
11/13/2021 7:15:00 AM 6.9693 28.9091
11/13/2021 7:30:00 AM 6.9708 29.1333
11/13/2021 7:45:00 AM 6.9707 29.6662
11/13/2021 8:00:00 AM 6.9712 30.2175
11/13/2021 8:15:00 AM 6.9712 31.1035
11/13/2021 8:30:00 AM 6.9707 31.9176
11/13/2021 8:45:00 AM 6.9678 33.6
11/13/2021 9:00:00 AM 6.9663 34.9738
11/13/2021 9:15:00 AM 6.9667 35.151
11/13/2021 9:30:00 AM 6.9648 34.5233
11/13/2021 9:45:00 AM 6.9622 35.0943
11/13/2021 10:00:00 AM 6.9617 36.1519
11/13/2021 10:15:00 AM 6.9603 38.6575
11/13/2021 10:30:00 AM 6.9591 37.0315
11/13/2021 10:45:00 AM 6.9573 35.5037
11/13/2021 11:00:00 AM 6.9572 34.2719
11/13/2021 11:15:00 AM 6.9567 33.3681
11/13/2021 11:30:00 AM 6.9574 33.0122
11/13/2021 11:45:00 AM 6.9594 32.7
11/13/2021 12:00:00 PM 6.957 31.5226
11/13/2021 12:15:00 PM 6.9586 31.1007
11/13/2021 12:30:00 PM 6.9607 30.0047
11/13/2021 12:45:00 PM 6.9618 29.3955
11/13/2021 1:00:00 PM 6.9651 28.6468
11/13/2021 1:15:00 PM 6.9668 28.1778
11/13/2021 1:30:00 PM 6.9714 27.6615
11/13/2021 1:45:00 PM 6.9741 27.4619
11/13/2021 2:00:00 PM 6.9789 27.3827
11/13/2021 2:15:00 PM 6.9813 28.0621
11/13/2021 2:30:00 PM 6.9846 27.8901
11/13/2021 2:45:00 PM 6.9876 28.3804
11/13/2021 3:00:00 PM 6.9897 28.3368
11/13/2021 3:15:00 PM 6.9939 28.6073
11/13/2021 3:30:00 PM 6.9949 28.7361
11/13/2021 3:45:00 PM 6.9997 29.24
11/13/2021 4:00:00 PM 7.0002 29.3316
11/13/2021 4:15:00 PM 7.0032 29.6602
11/13/2021 4:30:00 PM 7.0051 29.6911
11/13/2021 4:45:00 PM 7.0084 30.2436
11/13/2021 5:00:00 PM 7.011 30.2476
11/13/2021 5:15:00 PM 7.0137 31.3965
11/13/2021 5:30:00 PM 7.0161 31.4831
11/13/2021 5:45:00 PM 7.0182 31.7
11/13/2021 6:00:00 PM 7.019 29.9647
11/13/2021 6:15:00 PM 7.0228 29.5612
11/13/2021 6:30:00 PM 7.0241 28.8002
11/13/2021 6:45:00 PM 7.0244 28.1304
11/13/2021 7:00:00 PM 7.025 26.8032
11/13/2021 7:15:00 PM 7.0272 26.4634
11/13/2021 7:30:00 PM 7.0285 26.0874
11/13/2021 7:45:00 PM 7.0291 26.1675
11/13/2021 8:00:00 PM 7.0292 26.6291
11/13/2021 8:15:00 PM 7.0288 27.2004
11/13/2021 8:30:00 PM 7.0306 26.1486
11/13/2021 8:45:00 PM 7.035 25.7
11/13/2021 9:00:00 PM 7.0335 30.2767
11/13/2021 9:15:00 PM 7.0331 28.7898
11/13/2021 9:30:00 PM 7.0299 27.0931
11/13/2021 9:45:00 PM 7.0291 26.6561
11/13/2021 10:00:00 PM 7.0267 26.5739
11/13/2021 10:15:00 PM 7.0222 27.0904
11/13/2021 10:30:00 PM 7.0176 27.427
11/13/2021 10:45:00 PM 7.0138 28.475
11/13/2021 11:00:00 PM 7.0085 28.4893
11/13/2021 11:15:00 PM 7.0036 28.6406
11/13/2021 11:30:00 PM 6.9985 28.3506
11/13/2021 11:45:00 PM 6.9958 28.1
11/14/2021 12:00:00 AM 6.9894 27.1012
11/14/2021 12:15:00 AM 6.9854 27.3738
11/14/2021 12:30:00 AM 6.9808 27.2321
11/14/2021 12:45:00 AM 6.9784 26.7759
11/14/2021 1:00:00 AM 6.9755 26.4417
11/14/2021 1:15:00 AM 6.9721 25.9599
11/14/2021 1:30:00 AM 6.9711 25.8322
11/14/2021 1:45:00 AM 6.9707 25.5398
11/14/2021 2:00:00 AM 6.9677 25.2306
11/14/2021 2:15:00 AM 6.9661 25.0997
11/14/2021 2:30:00 AM 6.9666 25.0531
11/14/2021 2:45:00 AM 6.9664 25.2
11/14/2021 3:00:00 AM 6.9623 25.0123
11/14/2021 3:15:00 AM 6.9622 24.973
11/14/2021 3:30:00 AM 6.9616 24.6585
11/14/2021 3:45:00 AM 6.9616 24.6448
11/14/2021 4:00:00 AM 6.959 24.2126
11/14/2021 4:15:00 AM 6.958 24.6367
11/14/2021 4:30:00 AM 6.9573 24.5408
11/14/2021 4:45:00 AM 6.9567 24.1923
11/14/2021 5:00:00 AM 6.957 23.7072
11/14/2021 5:15:00 AM 6.9575 23.1451
11/14/2021 5:30:00 AM 6.9597 22.3035
11/14/2021 5:45:00 AM 6.9636 21.4
11/14/2021 6:00:00 AM 6.9617 20.6474
11/14/2021 6:15:00 AM 6.9628 20.7858
11/14/2021 6:30:00 AM 6.9652 21.1718
11/14/2021 6:45:00 AM 6.9662 20.5607
11/14/2021 7:00:00 AM 6.9687 19.971
11/14/2021 7:15:00 AM 6.971 19.4853
11/14/2021 7:30:00 AM 6.9717 19.1628
11/14/2021 7:45:00 AM 6.9751 18.8011
11/14/2021 8:00:00 AM 6.9761 19.0061
11/14/2021 8:15:00 AM 6.9766 19.1891
11/14/2021 8:30:00 AM 6.9798 19.5743
11/14/2021 8:45:00 AM 6.9818 18.8
11/14/2021 9:00:00 AM 6.9818 18.3732
11/14/2021 9:15:00 AM 6.9853 18.0712
11/14/2021 9:30:00 AM 6.9858 17.9378
11/14/2021 9:45:00 AM 6.9859 17.7139
11/14/2021 10:00:00 AM 6.9861 17.938
11/14/2021 10:15:00 AM 6.9859 17.874
11/14/2021 10:30:00 AM 6.9873 17.734
11/14/2021 10:45:00 AM 6.986 17.7019
11/14/2021 11:00:00 AM 6.9858 17.6026
11/14/2021 11:15:00 AM 6.9858 17.6351
11/14/2021 11:30:00 AM 6.9853 17.6016
11/14/2021 11:45:00 AM 6.986 17.5
11/14/2021 12:00:00 PM 6.9829 17.5877
11/14/2021 12:15:00 PM 6.9811 17.5127
11/14/2021 12:30:00 PM 6.9809 17.5111
11/14/2021 12:45:00 PM 6.9775 17.5049
11/14/2021 1:00:00 PM 6.9763 17.5036
11/14/2021 1:15:00 PM 6.9758 17.4922
11/14/2021 1:30:00 PM 6.9731 17.5689
11/14/2021 1:45:00 PM 6.9719 17.462
11/14/2021 2:00:00 PM 6.9713 17.3862
11/14/2021 2:15:00 PM 6.9709 17.3919
11/14/2021 2:30:00 PM 6.9684 17.3018
11/14/2021 2:45:00 PM 6.9663 17.2617
11/14/2021 3:00:00 PM 6.9665 17.6679
11/14/2021 3:15:00 PM 6.9659 17.6641
11/14/2021 3:30:00 PM 6.9665 17.6981
11/14/2021 3:45:00 PM 6.9663 17.9677
11/14/2021 4:00:00 PM 6.9665 17.8153
11/14/2021 4:15:00 PM 6.9664 17.6722
11/14/2021 4:30:00 PM 6.9686 17.6932
11/14/2021 4:45:00 PM 6.9704 17.5169
11/14/2021 5:00:00 PM 6.971 17.5225
11/14/2021 5:15:00 PM 6.9714 18.0043
11/14/2021 5:30:00 PM 6.9715 18.4269
11/14/2021 5:45:00 PM 6.9734 18.2
11/14/2021 6:00:00 PM 6.9729 17.5656
11/14/2021 6:15:00 PM 6.9757 17.3738
11/14/2021 6:30:00 PM 6.9754 17.435
11/14/2021 6:45:00 PM 6.9761 17.3735
11/14/2021 7:00:00 PM 6.9789 17.498
11/14/2021 7:15:00 PM 6.9809 17.63
11/14/2021 7:30:00 PM 6.9806 17.6344
11/14/2021 7:45:00 PM 6.9809 17.5129
11/14/2021 8:00:00 PM 6.9809 17.3831
11/14/2021 8:15:00 PM 6.9813 17.2478
11/14/2021 8:30:00 PM 6.9811 17.2843
11/14/2021 8:45:00 PM 6.9818 17.2
11/14/2021 9:00:00 PM 6.9819 17.3179
11/14/2021 9:15:00 PM 6.9811 17.3069
11/14/2021 9:30:00 PM 6.9809 17.3256
11/14/2021 9:45:00 PM 6.9799 20.7784
11/14/2021 10:00:00 PM 6.9843 19.6314
11/14/2021 10:15:00 PM 7.0162 18.7195
11/14/2021 10:30:00 PM 7.0722 18.4981
11/14/2021 10:45:00 PM 7.1327 18.1784
11/14/2021 11:00:00 PM 7.2179 18.0396
11/14/2021 11:15:00 PM 7.2817 17.9322
11/14/2021 11:30:00 PM 7.316 17.9547
11/14/2021 11:45:00 PM 7.3374 17.9
11/15/2021 12:00:00 AM 7.3996 17.8454
11/15/2021 12:15:00 AM 7.4116 17.8155
11/15/2021 12:30:00 AM 7.4179 18.0727
11/15/2021 12:45:00 AM 7.3922 17.8433
11/15/2021 1:00:00 AM 7.3904 17.9129
11/15/2021 1:15:00 AM 7.345 17.7417
11/15/2021 1:30:00 AM 7.3217 17.6741
11/15/2021 1:45:00 AM 7.3353 17.5905
11/15/2021 2:00:00 AM 7.3316 17.618
11/15/2021 2:15:00 AM 7.3272 17.588
11/15/2021 2:30:00 AM 7.3002 17.7879
11/15/2021 2:45:00 AM 7.294 17.7001
11/15/2021 3:00:00 AM 7.2797 27.0358
11/15/2021 3:15:00 AM 7.2793 20.9297
11/15/2021 3:30:00 AM 7.2498 17.6301
11/15/2021 3:45:00 AM 7.2731 17.4432
11/15/2021 4:00:00 AM 7.2937 17.4846
11/15/2021 4:15:00 AM 7.244 17.3806
11/15/2021 4:30:00 AM 7.232 17.1982
11/15/2021 4:45:00 AM 7.2486 17.1875
11/15/2021 5:00:00 AM 7.2379 17.5293
11/15/2021 5:15:00 AM 7.2036 17.4781
11/15/2021 5:30:00 AM 7.1807 17.3923
11/15/2021 5:45:00 AM 7.1848 17.3
11/15/2021 6:00:00 AM 7.2225 17.1594
11/15/2021 6:15:00 AM 7.2136 16.7332
11/15/2021 6:30:00 AM 7.1873 16.4663
11/15/2021 6:45:00 AM 7.1659 16.2699
11/15/2021 7:00:00 AM 7.162 16.1634
11/15/2021 7:15:00 AM 7.1752 16.0168
11/15/2021 7:30:00 AM 7.1812 15.7415
11/15/2021 7:45:00 AM 7.1842 15.6599
11/15/2021 8:00:00 AM 7.1848 15.8921
11/15/2021 8:15:00 AM 7.158 15.689
11/15/2021 8:30:00 AM 7.1655 15.3304
11/15/2021 8:45:00 AM 7.1792 15.3
11/15/2021 9:00:00 AM 7.182 15.1509
11/15/2021 9:15:00 AM 7.1887 15.3026
11/15/2021 9:30:00 AM 7.1898 15.195
11/15/2021 9:45:00 AM 7.1937 15.2419
11/15/2021 10:00:00 AM 7.2001 15.1216
11/15/2021 10:15:00 AM 7.1969 14.8344
11/15/2021 10:30:00 AM 7.1808 14.9814
11/15/2021 10:45:00 AM 7.1656 14.5745
11/15/2021 11:00:00 AM 7.1615 14.3616
11/15/2021 11:15:00 AM 7.1651 14.1808
11/15/2021 11:30:00 AM 7.2024 14.1045
11/15/2021 11:45:00 AM 7.2268 13.9
11/15/2021 12:00:00 PM 7.2455 14.5994
11/15/2021 12:15:00 PM 7.2459 15.1483
11/15/2021 12:30:00 PM 7.2272 15.3877
11/15/2021 12:45:00 PM 7.2209 15.6583
11/15/2021 1:00:00 PM 7.2234 15.6458
11/15/2021 1:15:00 PM 7.2342 15.2209
11/15/2021 1:30:00 PM 7.2346 14.8418
11/15/2021 1:45:00 PM 7.2526 14.5375
11/15/2021 2:00:00 PM 7.2426 14.5238
11/15/2021 2:15:00 PM 7.2307 14.7088
11/15/2021 2:30:00 PM 7.2222 14.8874
11/15/2021 2:45:00 PM 7.2349 15.3547
11/15/2021 3:00:00 PM 7.2578 15.8228
11/15/2021 3:15:00 PM 7.2376 15.5014
11/15/2021 3:30:00 PM 7.2291 15.0417
11/15/2021 3:45:00 PM 7.2268 14.5869
11/15/2021 4:00:00 PM 7.226 14.3036
11/15/2021 4:15:00 PM 7.2257 14.0464
11/15/2021 4:30:00 PM 7.2318 13.6984
11/15/2021 4:45:00 PM 7.2436 13.4538
11/15/2021 5:00:00 PM 7.2328 13.2437
11/15/2021 5:15:00 PM 7.2258 13.2887
11/15/2021 5:30:00 PM 7.2388 15.9545
11/15/2021 5:45:00 PM 7.2324 18
11/15/2021 6:00:00 PM 7.236 15.9948
11/15/2021 6:15:00 PM 7.2423 14.6234
11/15/2021 6:30:00 PM 7.2328 13.8757
11/15/2021 6:45:00 PM 7.2308 13.3554
11/15/2021 7:00:00 PM 7.2248 14.0945
11/15/2021 7:15:00 PM 7.2194 15.1524
11/15/2021 7:30:00 PM 7.2308 14.2448
11/15/2021 7:45:00 PM 7.2276 13.508
11/15/2021 8:00:00 PM 7.2275 13.1259
11/15/2021 8:15:00 PM 7.2352 12.8783
11/15/2021 8:30:00 PM 7.2387 12.7416
11/15/2021 8:45:00 PM 7.2324 12.9
11/15/2021 9:00:00 PM 7.2197 13.0205
11/15/2021 9:15:00 PM 7.2277 13.1831
11/15/2021 9:30:00 PM 7.2491 13.4448
11/15/2021 9:45:00 PM 7.2563 13.3453
11/15/2021 10:00:00 PM 7.2627 14.2223
11/15/2021 10:15:00 PM 7.2564 13.9466
11/15/2021 10:30:00 PM 7.2568 13.7863
11/15/2021 10:45:00 PM 7.2547 13.3819
11/15/2021 11:00:00 PM 7.2445 13.2965
11/15/2021 11:15:00 PM 7.2456 13.1603
11/15/2021 11:30:00 PM 7.2244 13.0092
11/15/2021 11:45:00 PM 7.2184 12.9
11/16/2021 12:00:00 AM 7.2422 12.859
11/16/2021 12:15:00 AM 7.2515 12.8416
11/16/2021 12:30:00 AM 7.2558 12.9033
11/16/2021 12:45:00 AM 7.2521 12.713
11/16/2021 1:00:00 AM 7.2566 12.6294
11/16/2021 1:15:00 AM 7.2559 12.5935
11/16/2021 1:30:00 AM 7.2462 12.4817
11/16/2021 1:45:00 AM 7.2153 12.3326
11/16/2021 2:00:00 AM 7.2065 12.3616
11/16/2021 2:15:00 AM 7.219 12.2581
11/16/2021 2:30:00 AM 7.2491 12.184
11/16/2021 2:45:00 AM 7.266 12.0999
11/16/2021 3:00:00 AM 7.2499 11.9955
11/16/2021 3:15:00 AM 7.2384 12.0246
11/16/2021 3:30:00 AM 7.2352 12.0581
11/16/2021 3:45:00 AM 7.2361 12.3689
11/16/2021 4:00:00 AM 7.2295 13.0887
11/16/2021 4:15:00 AM 7.2082 13.0938
11/16/2021 4:30:00 AM 7.2014 13.265
11/16/2021 4:45:00 AM 7.1973 13.1401
11/16/2021 5:00:00 AM 7.2115 13.3673
11/16/2021 5:15:00 AM 7.2386 13.4855
11/16/2021 5:30:00 AM 7.2456 13.8807
11/16/2021 5:45:00 AM 7.2464 13.7
11/16/2021 6:00:00 AM 7.257 12.7654
11/16/2021 6:15:00 AM 7.234 12.1502
11/16/2021 6:30:00 AM 7.235 11.7834
11/16/2021 6:45:00 AM